PWCRAW Weather Reports


time (UTC)temp
F
wind
direction
speed
knots
gust
knots
rain 1hr
in
rain 24hr
in
rain mn
in
humidity
%
barometer
mb
20260508102706 54 166 2.6 6.1 0.00 0.14 0.02 78 1017.9
20260508102604 54 165 2.6 6.1 0.00 0.14 0.02 78 1017.8
20260508102505 54 166 1.7 6.1 0.00 0.15 0.02 79 1017.9
20260508102411 54 164 1.7 6.1 0.00 0.15 0.02 79 1017.9
20260508102306 54 164 1.7 6.1 0.00 0.15 0.02 79 1017.8
20260508102106 54 148 1.7 6.1 0.00 0.15 0.02 79 1017.8
20260508102004 54 117 0.9 5.2 0.00 0.15 0.02 79 1017.7
20260508101904 54 105 0.9 5.2 0.00 0.15 0.02 80 1017.7
20260508101804 54 107 0.9 5.2 0.00 0.15 0.02 80 1017.8
20260508101704 54 95 0.9 3.5 0.00 0.15 0.02 80 1017.8
20260508101606 54 108 0.9 6.1 0.00 0.15 0.02 80 1017.8
20260508101404 54 122 0.9 6.1 0.00 0.15 0.02 81 1017.7
20260508101304 54 132 0.9 6.1 0.00 0.15 0.02 81 1017.8
20260508101204 54 138 1.7 7.0 0.00 0.15 0.02 81 1017.8
20260508101111 54 140 1.7 7.0 0.00 0.15 0.02 81 1017.8
20260508101106 54 141 1.7 7.0 0.00 0.15 0.02 81 1017.8
20260508101004 54 145 1.7 7.0 0.00 0.15 0.02 81 1017.8
20260508100912 54 145 1.7 7.0 0.00 0.15 0.02 81 1017.9
20260508100804 53 143 0.9 7.0 0.00 0.15 0.02 81 1017.8
20260508100604 53 137 1.7 7.0 0.00 0.15 0.02 82 1017.7
20260508100505 53 137 1.7 7.0 0.00 0.15 0.02 82 1017.8
20260508100404 53 134 1.7 7.0 0.00 0.15 0.02 82 1017.8
20260508100304 53 129 1.7 7.0 0.00 0.15 0.02 82 1017.8
20260508100204 53 125 1.7 6.1 0.00 0.15 0.02 82 1017.8
20260508100012 53 126 1.7 6.1 0.00 0.15 0.02 82 1018.0
20260508100005 53 126 1.7 6.1 0.00 0.15 0.02 83 1018.0
20260508095904 53 129 1.7 6.1 0.00 0.15 0.02 83 1017.8
20260508095811 53 131 1.7 6.1 0.00 0.15 0.02 83 1017.7
20260508095704 53 134 1.7 5.2 0.00 0.15 0.02 83 1017.9
20260508095611 53 139 1.7 5.2 0.00 0.15 0.02 83 1017.9
20260508095505 52 137 0.9 5.2 0.00 0.15 0.02 83 1017.9
20260508095306 52 143 0.9 3.5 0.00 0.15 0.02 83 1018.0
20260508095212 52 141 0.9 3.5 0.00 0.15 0.02 83 1017.9
20260508095204 52 142 0.9 3.5 0.00 0.15 0.02 83 1017.9
20260508095105 52 133 1.7 3.5 0.00 0.15 0.02 83 1017.8
20260508094904 52 119 0.9 3.5 0.00 0.15 0.02 84 1017.8
20260508094804 51 119 0.9 3.5 0.00 0.15 0.02 84 1017.8
20260508094706 51 123 0.9 3.5 0.00 0.15 0.02 84 1017.7
20260508094606 51 119 1.7 3.5 0.00 0.15 0.02 84 1017.9
20260508094505 51 122 1.7 3.5 0.00 0.15 0.02 84 1017.7
20260508094405 51 121 1.7 3.5 0.00 0.15 0.02 84 1017.9
20260508094306 51 121 1.7 3.5 0.00 0.15 0.02 84 1017.9
20260508094204 51 121 0.9 3.5 0.00 0.15 0.02 84 1017.7
20260508094104 51 124 0.9 3.5 0.00 0.16 0.02 84 1017.8
20260508094005 51 126 0.9 3.5 0.00 0.16 0.02 85 1017.8
20260508093905 51 126 0.9 3.5 0.00 0.16 0.02 85 1017.9
20260508093807 51 126 0.9 3.5 0.00 0.16 0.02 85 1017.9
20260508093706 51 115 0.9 3.5 0.00 0.16 0.02 85 1017.8
20260508093604 51 113 0.9 3.5 0.00 0.16 0.02 85 1017.8
20260508093505 51 108 0.9 3.5 0.00 0.16 0.02 85 1017.8
20260508093306 50 104 0.9 3.5 0.00 0.16 0.02 85 1017.8
20260508093206 50 103 0.9 3.5 0.00 0.16 0.02 85 1017.9
20260508093005 50 106 0.9 6.1 0.00 0.16 0.02 85 1017.7
20260508092905 50 107 1.7 6.1 0.00 0.16 0.02 85 1018.0
20260508092804 50 108 1.7 6.1 0.00 0.16 0.02 85 1017.7
20260508092706 50 112 1.7 6.1 0.00 0.16 0.02 85 1017.6
20260508092604 50 114 1.7 6.1 0.00 0.16 0.02 85 1017.9
20260508092504 50 113 1.7 6.1 0.00 0.16 0.02 85 1017.8
20260508092404 50 113 1.7 6.1 0.00 0.16 0.02 86 1017.9
20260508092313 50 111 1.7 6.1 0.00 0.16 0.02 86 1017.9
20260508092204 50 108 1.7 6.1 0.00 0.16 0.02 86 1018.0
20260508092012 50 100 1.7 6.1 0.00 0.16 0.02 86 1017.9
20260508092005 50 100 1.7 6.1 0.00 0.16 0.02 86 1017.9
20260508091904 50 96 1.7 6.1 0.00 0.16 0.02 86 1018.1
20260508091813 50 95 1.7 6.1 0.00 0.16 0.02 86 1018.2
20260508091712 50 87 1.7 5.2 0.00 0.16 0.02 86 1018.1
20260508091705 50 85 0.9 5.2 0.00 0.16 0.02 86 1018.1
20260508091404 50 80 1.7 2.6 0.00 0.16 0.02 86 1018.0
20260508091304 50 86 1.7 2.6 0.00 0.16 0.02 86 1018.0
20260508091205 49 93 1.7 2.6 0.00 0.16 0.02 86 1018.1
20260508091104 49 98 1.7 3.5 0.00 0.16 0.02 86 1017.8
20260508091004 49 98 1.7 3.5 0.00 0.16 0.02 87 1018.0
20260508090905 49 93 1.7 3.5 0.00 0.16 0.02 87 1018.1
20260508090804 49 93 1.7 3.5 0.00 0.17 0.02 87 1017.9
20260508090704 49 91 1.7 3.5 0.00 0.17 0.02 87 1017.9
20260508090604 49 90 1.7 3.5 0.00 0.17 0.02 87 1018.0
20260508090506 49 90 1.7 3.5 0.00 0.17 0.02 87 1018.0
20260508090406 49 86 1.7 3.5 0.00 0.17 0.02 87 1017.8
20260508090306 49 82 1.7 3.5 0.00 0.17 0.02 87 1017.9
20260508090205 49 78 1.7 3.5 0.00 0.17 0.02 87 1018.0
20260508090106 49 76 0.9 3.5 0.00 0.17 0.02 87 1018.0
20260508090005 49 78 0.9 3.5 0.00 0.17 0.02 87 1018.0
20260508085904 49 82 0.9 2.6 0.00 0.17 0.02 87 1018.0
20260508085804 49 83 0.9 2.6 0.00 0.17 0.02 87 1018.0
20260508085704 49 88 0.9 2.6 0.00 0.17 0.02 87 1017.8
20260508085506 49 87 0.9 5.2 0.00 0.17 0.02 87 1018.0
20260508085406 49 90 0.9 5.2 0.00 0.17 0.02 87 1018.0
20260508085307 49 93 0.9 5.2 0.00 0.17 0.02 87 1017.8
20260508085204 49 96 0.9 5.2 0.00 0.17 0.02 87 1017.8
20260508085104 49 99 1.7 5.2 0.00 0.17 0.02 87 1017.9
20260508085004 49 100 1.7 5.2 0.00 0.17 0.02 87 1018.0
20260508084904 49 99 1.7 5.2 0.00 0.17 0.02 87 1017.9
20260508084804 49 101 1.7 5.2 0.00 0.17 0.02 87 1018.0
20260508084706 49 102 1.7 5.2 0.00 0.17 0.02 87 1017.8
20260508084604 49 107 1.7 5.2 0.00 0.17 0.02 87 1017.9
20260508084505 49 110 0.9 5.2 0.00 0.17 0.02 87 1017.9
20260508084404 49 115 0.9 5.2 0.00 0.17 0.02 87 1018.1
20260508084304 49 115 0.9 5.2 0.00 0.17 0.02 87 1018.0
20260508084212 49 115 0.9 5.2 0.00 0.17 0.02 87 1018.0
20260508084205 49 116 0.9 5.2 0.00 0.17 0.02 87 1018.0
20260508083904 49 114 0.9 2.6 0.00 0.17 0.02 88 1018.0
20260508083804 49 102 0.9 2.6 0.00 0.17 0.02 88 1018.0
20260508083706 49 99 0.9 2.6 0.00 0.17 0.02 88 1018.0
20260508083604 49 93 0.9 2.6 0.00 0.17 0.02 88 1017.9
20260508083504 49 86 0.9 2.6 0.00 0.17 0.02 88 1017.8
20260508083404 49 79 0.9 2.6 0.00 0.17 0.02 88 1018.0
20260508083304 49 76 0.9 2.6 0.00 0.18 0.02 88 1017.9
20260508083204 49 78 0.9 2.6 0.00 0.18 0.02 88 1018.0
20260508083105 49 82 0.9 2.6 0.00 0.18 0.02 88 1017.8
20260508083005 49 83 0.9 2.6 0.00 0.18 0.02 88 1017.8
20260508082904 49 82 0.9 2.6 0.00 0.18 0.02 89 1017.8
20260508082804 49 81 0.9 3.5 0.00 0.18 0.02 89 1017.9
20260508082706 49 78 0.9 3.5 0.00 0.18 0.02 89 1017.8
20260508082604 49 83 0.9 3.5 0.00 0.18 0.02 89 1017.7
20260508082504 49 88 0.9 3.5 0.00 0.18 0.02 89 1017.9
20260508082306 49 89 0.9 3.5 0.00 0.18 0.02 89 1017.7
20260508082206 49 79 0.9 7.0 0.00 0.18 0.02 89 1017.7
20260508082106 49 77 1.7 7.0 0.00 0.18 0.02 89 1017.8
20260508082004 49 78 1.7 7.0 0.00 0.19 0.02 89 1017.8
20260508081904 49 79 1.7 7.0 0.00 0.19 0.02 89 1017.8
20260508081805 49 82 1.7 7.0 0.00 0.19 0.02 89 1017.8
20260508081706 49 82 1.7 7.0 0.00 0.19 0.02 89 1017.8
20260508081604 49 77 1.7 7.0 0.00 0.19 0.02 90 1017.8
20260508081305 49 74 1.7 7.0 0.00 0.19 0.02 90 1017.6
20260508081204 49 77 0.9 3.5 0.00 0.19 0.02 90 1017.6
20260508081104 49 76 0.9 3.5 0.00 0.19 0.02 90 1017.6
20260508081005 48 73 0.9 3.5 0.00 0.19 0.02 90 1017.6
20260508080804 48 70 0.9 2.6 0.00 0.19 0.02 90 1017.7
20260508080704 48 74 0.9 2.6 0.00 0.19 0.02 90 1017.6
20260508080512 48 81 0.9 2.6 0.00 0.19 0.02 90 1017.9
20260508080505 48 82 0.9 2.6 0.00 0.19 0.02 90 1017.9
20260508080404 48 83 0.9 2.6 0.00 0.19 0.02 90 1017.7
20260508080205 48 96 0.9 2.6 0.00 0.20 0.02 90 1017.6
20260508080104 48 96 0.9 2.6 0.00 0.20 0.02 90 1017.8
20260508080005 48 98 0.9 2.6 0.00 0.20 0.02 90 1017.8
20260508075904 48 96 0.9 3.5 0.00 0.20 0.02 90 1017.8
20260508075812 48 97 0.9 3.5 0.00 0.20 0.02 90 1017.8
20260508075805 48 97 0.9 3.5 0.00 0.20 0.02 90 1017.8
20260508075712 48 96 0.9 3.5 0.00 0.20 0.02 90 1017.7
20260508075704 48 97 0.9 3.5 0.00 0.20 0.02 90 1017.7
20260508075404 48 90 0.9 3.5 0.00 0.20 0.02 91 1017.6
20260508075308 48 88 0.9 3.5 0.00 0.20 0.02 91 1017.8
20260508075212 48 82 0.9 3.5 0.00 0.20 0.02 91 1017.7
20260508075204 48 82 0.9 3.5 0.00 0.20 0.02 91 1017.7
20260508075104 48 84 0.9 3.5 0.00 0.20 0.02 91 1017.7
20260508074904 48 84 0.9 3.5 0.00 0.20 0.02 91 1017.7
20260508074804 48 84 0.9 3.5 0.00 0.20 0.02 91 1017.6
20260508074704 48 84 0.9 3.5 0.00 0.20 0.02 91 1017.8
20260508074604 48 82 0.9 3.5 0.00 0.20 0.02 91 1017.5
20260508074404 48 84 0.9 3.5 0.00 0.20 0.02 91 1017.7
20260508074304 48 85 0.9 3.5 0.00 0.20 0.02 91 1017.5
20260508074204 48 88 0.9 2.6 0.00 0.21 0.02 91 1017.7
20260508074104 48 86 0.9 2.6 0.00 0.21 0.02 91 1017.7
20260508074004 47 87 0.9 2.6 0.00 0.21 0.02 91 1017.6
20260508073904 47 92 0.9 3.5 0.00 0.21 0.02 91 1017.6
20260508073804 47 95 0.9 3.5 0.00 0.21 0.02 91 1017.5
20260508073704 47 98 0.9 3.5 0.00 0.21 0.02 91 1017.7
20260508073604 47 98 0.9 3.5 0.00 0.21 0.02 91 1017.6
20260508073504 47 99 0.9 3.5 0.00 0.21 0.02 91 1017.5
20260508073411 47 100 0.9 3.5 0.00 0.21 0.02 91 1017.6
20260508073404 47 101 0.9 3.5 0.00 0.21 0.02 91 1017.6
20260508073304 47 101 0.9 3.5 0.00 0.21 0.02 91 1017.6
20260508073213 47 100 0.9 3.5 0.00 0.21 0.02 91 1017.7
20260508073104 47 98 0.9 3.5 0.00 0.21 0.02 91 1017.7
20260508072905 47 92 0.9 3.5 0.00 0.21 0.02 91 1017.7
20260508072804 47 87 0.9 3.5 0.00 0.21 0.02 91 1017.8
20260508072704 47 83 0.9 3.5 0.00 0.22 0.02 91 1017.6
20260508072604 47 78 0.9 3.5 0.00 0.22 0.02 91 1017.6
20260508072504 47 70 0.9 3.5 0.00 0.22 0.02 91 1017.5
20260508072404 47 63 0.9 2.6 0.00 0.22 0.02 92 1017.6
20260508072307 47 60 0.9 3.5 0.00 0.22 0.02 92 1017.5
20260508072204 47 55 1.7 3.5 0.00 0.22 0.02 92 1017.5
20260508072111 47 52 1.7 3.5 0.00 0.22 0.02 92 1017.7
20260508072104 47 52 1.7 3.5 0.00 0.22 0.02 92 1017.7
20260508072011 47 49 1.7 3.5 0.00 0.22 0.02 92 1017.4
20260508072004 47 48 1.7 3.5 0.00 0.22 0.02 92 1017.4
20260508071705 47 51 1.7 3.5 0.00 0.23 0.02 92 1017.5
20260508071604 47 51 1.7 3.5 0.00 0.23 0.02 92 1017.4
20260508071504 47 52 1.7 3.5 0.00 0.23 0.02 92 1017.4
20260508071404 47 54 1.7 3.5 0.00 0.23 0.02 92 1017.5
20260508071204 47 59 0.9 2.6 0.00 0.23 0.02 92 1017.5
20260508071104 47 63 0.9 2.6 0.00 0.24 0.02 92 1017.4
20260508071005 47 67 0.9 2.6 0.00 0.24 0.02 92 1017.6
20260508070904 47 68 0.9 2.6 0.00 0.24 0.02 92 1017.4
20260508070804 47 69 0.9 2.6 0.00 0.24 0.02 92 1017.5
20260508070704 47 70 0.9 2.6 0.00 0.24 0.02 92 1017.4
20260508070604 47 73 0.9 3.5 0.00 0.24 0.02 92 1017.4
20260508070504 47 70 0.9 5.2 0.00 0.24 0.02 92 1017.5
20260508070404 47 69 1.7 5.2 0.00 0.24 0.02 92 1017.3
20260508070304 47 68 1.7 5.2 0.00 0.25 0.02 92 1017.5
20260508070204 47 69 1.7 5.2 0.00 0.25 0.02 92 1017.5
20260508070006 47 61 1.7 5.2 0.00 0.25 0.02 92 1017.5
20260508065904 47 59 1.7 5.2 0.00 0.25 0.02 92 1017.4
20260508065811 47 56 1.7 5.2 0.00 0.26 0.02 92 1017.4
20260508065704 47 54 1.7 5.2 0.00 0.26 0.02 92 1017.4
20260508065505 47 51 1.7 3.5 0.00 0.26 0.02 92 1017.4
20260508065404 47 53 1.7 3.5 0.00 0.26 0.02 93 1017.4
20260508065307 47 53 1.7 3.5 0.00 0.26 0.02 93 1017.4
20260508065204 47 55 1.7 3.5 0.00 0.26 0.02 93 1017.5
20260508065104 47 57 1.7 3.5 0.00 0.26 0.02 93 1017.4
20260508065004 47 61 0.9 3.5 0.00 0.26 0.02 93 1017.4
20260508064904 47 64 0.9 2.6 0.00 0.27 0.02 93 1017.4
20260508064804 47 74 0.9 2.6 0.00 0.27 0.02 93 1017.3
20260508064704 47 77 0.9 2.6 0.00 0.27 0.02 93 1017.1
20260508064604 47 80 0.9 2.6 0.00 0.27 0.02 93 1017.3
20260508064504 47 87 0.9 2.6 0.00 0.27 0.02 93 1017.1
20260508064404 47 84 0.9 3.5 0.00 0.27 0.02 93 1017.1
20260508064304 47 80 0.9 3.5 0.00 0.28 0.02 93 1017.1
20260508064204 47 76 0.9 3.5 0.00 0.28 0.02 93 1017.1
20260508064111 47 69 0.9 3.5 0.00 0.28 0.02 93 1017.0
20260508064104 47 68 0.9 3.5 0.00 0.28 0.02 93 1017.0
20260508064011 46 63 0.9 3.5 0.00 0.28 0.02 93 1017.1
20260508064005 46 64 0.9 3.5 0.00 0.28 0.02 93 1017.1
20260508063911 46 63 0.9 3.5 0.00 0.29 0.02 93 1017.3
20260508063604 46 64 0.9 3.5 0.00 0.29 0.02 93 1017.1
20260508063504 46 65 0.9 3.5 0.00 0.29 0.02 93 1017.0
20260508063404 46 63 0.9 3.5 0.00 0.29 0.02 93 1017.0
20260508063305 46 67 0.9 2.6 0.00 0.29 0.02 93 1017.0
20260508063204 46 70 0.9 2.6 0.01 0.29 0.02 93 1016.9
20260508063104 46 75 0.9 2.6 0.01 0.29 0.02 93 1016.8
20260508063004 46 83 0.9 2.6 0.01 0.29 0.02 93 1016.9
20260508062904 46 86 0.9 2.6 0.01 0.29 0.02 93 1016.9
20260508062804 46 92 0.9 2.6 0.01 0.29 0.02 93 1016.9
20260508062704 46 94 0.9 2.6 0.01 0.29 0.02 93 1016.9
20260508062604 46 90 0.9 3.5 0.01 0.29 0.02 93 1017.0
20260508062505 46 84 0.9 3.5 0.01 0.29 0.02 93 1017.0
20260508062411 46 85 0.9 3.5 0.01 0.29 0.02 93 1017.0
20260508062404 46 86 0.9 3.5 0.01 0.29 0.02 93 1017.0
20260508062105 46 73 1.7 3.5 0.01 0.29 0.02 93 1016.9
20260508062005 46 68 1.7 3.5 0.01 0.29 0.02 93 1017.0
20260508061904 45 61 1.7 3.5 0.01 0.30 0.02 93 1016.8
20260508061804 45 55 1.7 3.5 0.01 0.30 0.02 93 1016.7
20260508061704 45 52 1.7 3.5 0.01 0.30 0.02 93 1016.7
20260508061604 45 49 1.7 3.5 0.00 0.30 0.01 93 1017.0
20260508061504 45 51 1.7 3.5 0.00 0.30 0.01 93 1016.7
20260508061404 45 49 1.7 3.5 0.00 0.30 0.01 93 1016.7
20260508061304 45 49 1.7 3.5 0.00 0.30 0.01 93 1016.9
20260508061204 46 49 1.7 3.5 0.00 0.30 0.01 93 1016.9
20260508061104 46 51 1.7 3.5 0.00 0.30 0.01 93 1016.8
20260508061004 46 51 0.9 3.5 0.00 0.30 0.01 93 1016.7
20260508060904 46 55 0.9 3.5 0.00 0.30 0.01 93 1016.8
20260508060811 46 57 0.9 3.5 0.00 0.30 0.01 93 1016.8
20260508060712 46 58 0.9 3.5 0.00 0.30 0.01 93 1016.7
20260508060704 46 57 0.9 2.6 0.00 0.30 0.01 93 1016.7
20260508060404 46 53 1.7 2.6 0.00 0.30 0.01 93 1016.9
20260508060304 45 53 1.7 2.6 0.00 0.30 0.01 93 1016.7
20260508060204 45 56 1.7 2.6 0.00 0.31 0.01 93 1016.8
20260508060105 45 55 1.7 2.6 0.00 0.31 0.01 93 1016.7
20260508060005 45 56 1.7 2.6 0.00 0.31 0.01 93 1016.7
20260508055911 45 56 1.7 2.6 0.00 0.31 0.01 93 1016.7
20260508055804 45 56 1.7 2.6 0.00 0.31 0.01 93 1016.7
20260508055605 45 55 0.9 2.6 0.00 0.31 0.01 93 1016.7
20260508055505 45 57 0.9 2.6 0.00 0.31 0.01 93 1016.7
20260508055404 45 58 0.9 2.6 0.00 0.31 0.01 93 1016.7
20260508055306 45 64 0.9 2.6 0.00 0.32 0.01 93 1016.6
20260508055205 45 63 0.0 2.6 0.00 0.32 0.01 93 1016.6
20260508055104 45 62 0.0 1.7 0.00 0.32 0.01 94 1016.6
20260508055004 45 76 0.0 1.7 0.00 0.32 0.01 94 1016.6
20260508054904 45 76 0.0 1.7 0.00 0.32 0.01 94 1016.8
20260508054804 45 76 0.0 1.7 0.00 0.32 0.01 94 1016.7
20260508054704 45 76 0.0 1.7 0.00 0.32 0.01 94 1016.5
20260508054604 45 76 0.0 1.7 0.00 0.32 0.01 94 1016.8
20260508054504 45 76 0.0 1.7 0.00 0.33 0.01 94 1016.7
20260508054404 45 76 0.0 1.7 0.00 0.33 0.01 94 1016.7
20260508054204 45 69 0.0 1.7 0.00 0.33 0.01 94 1016.7
20260508054104 45 72 0.0 1.7 0.00 0.33 0.01 94 1016.7
20260508054011 45 66 0.0 1.7 0.00 0.33 0.01 94 1016.5
20260508054004 45 65 0.0 1.7 0.00 0.33 0.01 94 1016.5
20260508053904 45 69 0.0 2.6 0.00 0.33 0.01 94 1016.6
20260508053811 45 76 0.0 2.6 0.00 0.33 0.01 94 1016.6
20260508053704 45 79 0.0 2.6 0.01 0.33 0.01 94 1016.7
20260508053504 45 78 0.0 2.6 0.01 0.33 0.01 94 1016.6
20260508053411 45 77 0.0 2.6 0.01 0.33 0.01 94 1016.5
20260508053404 45 77 0.0 2.6 0.01 0.33 0.01 94 1016.5
20260508053304 45 78 0.0 2.6 0.01 0.33 0.01 94 1016.6
20260508053004 45 81 0.9 2.6 0.00 0.34 0.01 94 1016.6
20260508052904 45 79 0.9 2.6 0.00 0.34 0.01 94 1016.6
20260508052804 45 77 0.9 2.6 0.00 0.34 0.01 94 1016.6
20260508052704 45 77 0.9 2.6 0.00 0.34 0.01 94 1016.6
20260508052604 45 73 0.9 2.6 0.00 0.34 0.01 94 1016.5
20260508052504 45 72 0.9 2.6 0.00 0.34 0.01 94 1016.6
20260508052404 45 70 0.9 2.6 0.00 0.34 0.01 94 1016.6
20260508052306 45 69 0.9 2.6 0.00 0.34 0.01 94 1016.5
20260508052004 45 59 0.0 2.6 0.00 0.35 0.01 94 1016.6
20260508051911 45 61 0.0 2.6 0.00 0.35 0.01 94 1016.5
20260508051904 45 62 0.0 2.6 0.00 0.35 0.01 94 1016.5
20260508051804 45 60 0.0 1.7 0.00 0.35 0.01 94 1016.6
20260508051604 45 61 0.0 1.7 0.00 0.35 0.01 94 1016.6
20260508051511 45 65 0.0 1.7 0.00 0.35 0.01 94 1016.5
20260508051504 45 66 0.0 1.7 0.00 0.35 0.01 94 1016.5
20260508051404 45 76 0.0 0.9 0.00 0.35 0.01 94 1016.3
20260508051204 45 76 0.0 0.9 0.00 0.35 0.01 94 1016.5
20260508051104 45 76 0.0 0.9 0.00 0.36 0.01 94 1016.6
20260508050904 45 76 0.0 0.9 0.00 0.36 0.01 94 1016.4
20260508050804 45 78 0.0 0.9 0.00 0.36 0.01 94 1016.4
20260508050711 45 78 0.0 0.9 0.00 0.36 0.01 94 1016.5
20260508050411 44 0 0.0 0.0 0.00 0.37 0.01 94 1016.4
20260508050404 44 0 0.0 0.0 0.00 0.37 0.01 94 1016.4
20260508050304 44 0 0.0 0.0 0.00 0.37 0.01 94 1016.5
20260508050104 44 0 0.0 0.0 0.00 0.37 0.01 94 1016.2
20260508050005 44 0 0.0 0.0 0.00 0.38 0.01 94 1016.4
20260508045904 44 0 0.0 0.0 0.00 0.38 0.01 94 1016.3
20260508045704 44 0 0.0 0.0 0.00 0.38 0.01 94 1016.2
20260508045604 44 0 0.0 0.0 0.00 0.39 0.01 94 1016.3
20260508045404 44 0 0.0 0.0 0.00 0.39 0.01 94 1016.2
20260508045307 44 0 0.0 0.0 0.00 0.39 0.01 94 1016.3
20260508045204 44 0 0.0 0.0 0.00 0.39 0.01 94 1016.4
20260508045104 44 0 0.0 0.0 0.00 0.39 0.01 94 1016.2
20260508045004 44 0 0.0 0.0 0.00 0.39 0.01 94 1016.3
20260508044904 44 0 0.0 0.0 0.00 0.39 0.01 94 1016.2
20260508044804 44 0 0.0 0.0 0.00 0.40 0.01 94 1016.2
20260508044704 44 0 0.0 0.0 0.00 0.40 0.01 94 1016.2
20260508044604 44 0 0.0 0.0 0.00 0.40 0.01 94 1016.3
20260508044504 44 0 0.0 0.0 0.00 0.40 0.01 94 1016.4
20260508044405 44 0 0.0 0.0 0.00 0.41 0.01 94 1016.2
20260508044204 44 90 0.0 1.7 0.00 0.41 0.01 94 1016.2
20260508044104 44 91 0.0 1.7 0.00 0.41 0.01 94 1016.1
20260508044004 44 91 0.0 1.7 0.00 0.41 0.01 94 1016.0
20260508043804 44 91 0.0 1.7 0.00 0.41 0.01 94 1016.1
20260508043704 44 91 0.0 1.7 0.00 0.41 0.00 94 1016.2
20260508043504 44 91 0.0 1.7 0.00 0.41 0.00 94 1016.0
20260508043404 44 91 0.0 1.7 0.00 0.41 0.00 94 1016.1
20260508043304 44 91 0.0 1.7 0.00 0.41 0.00 94 1016.0
20260508043104 44 0 0.0 0.0 0.00 0.41 0.00 94 1016.1
20260508043004 44 0 0.0 0.0 0.00 0.41 0.00 94 1016.1
20260508042904 44 0 0.0 0.0 0.00 0.41 0.00 94 1016.2
20260508042804 44 0 0.0 0.0 0.00 0.41 0.00 94 1015.9
20260508042604 44 0 0.0 0.0 0.00 0.41 0.00 94 1016.0
20260508042505 44 0 0.0 0.0 0.00 0.41 0.00 94 1016.0
20260508042404 44 0 0.0 0.0 0.00 0.41 0.00 94 1016.2
20260508042307 44 0 0.0 0.0 0.00 0.41 0.00 94 1016.1
20260508042204 44 0 0.0 0.0 0.00 0.41 0.00 94 1016.1
20260508042104 43 0 0.0 0.0 0.00 0.41 0.00 94 1016.1
20260508042005 43 0 0.0 0.0 0.00 0.42 0.00 94 1016.3
20260508041905 44 0 0.0 0.0 0.00 0.42 0.00 94 1016.1
20260508041804 44 0 0.0 0.0 0.00 0.42 0.00 94 1016.1
20260508041705 43 0 0.0 0.0 0.00 0.42 0.00 94 1016.0
20260508041605 43 0 0.0 0.0 0.00 0.42 0.00 94 1016.2
20260508041505 43 0 0.0 0.0 0.00 0.42 0.00 94 1016.2
20260508041405 43 0 0.0 0.0 0.00 0.42 0.00 94 1016.3
20260508041304 43 0 0.0 0.0 0.00 0.42 0.00 94 1016.0
20260508041204 43 0 0.0 0.0 0.00 0.42 0.00 94 1016.2
20260508041104 43 0 0.0 0.0 0.00 0.42 0.00 94 1016.2
20260508041005 43 0 0.0 0.0 0.00 0.42 0.00 94 1016.1
20260508040804 43 0 0.0 0.0 0.00 0.43 0.00 94 1016.2
20260508040704 43 0 0.0 0.0 0.00 0.43 0.00 94 1016.4
20260508040604 43 0 0.0 0.0 0.00 0.43 0.00 94 1016.1
20260508040405 43 0 0.0 0.0 0.00 0.43 0.00 94 1016.0
20260508040305 43 0 0.0 0.0 0.00 0.43 0.00 94 1016.2
20260508040204 43 0 0.0 0.0 0.00 0.43 0.00 94 1016.1
20260508040007 43 42 0.0 0.9 0.00 0.43 0.00 94 1016.0
20260508035904 43 41 0.0 1.7 0.00 0.43 0.00 94 1016.2
20260508035804 43 43 0.0 1.7 0.00 0.43 0.00 94 1016.1
20260508035706 43 44 0.0 1.7 0.00 0.43 0.00 94 1016.2
20260508035604 43 44 0.9 1.7 0.00 0.43 0.00 94 1016.0
20260508035504 43 44 0.9 1.7 0.00 0.43 0.00 94 1016.2
20260508035404 43 44 0.9 1.7 0.00 0.43 0.00 94 1016.2
20260508035306 43 44 0.9 1.7 0.00 0.43 0.00 94 1016.1
20260508035204 43 45 0.9 1.7 0.00 0.43 0.00 94 1016.1
20260508035105 43 44 0.9 1.7 0.00 0.43 0.00 94 1015.9
20260508035004 43 45 0.9 1.7 0.00 0.43 0.00 94 1016.0
20260508034804 43 45 0.9 2.6 0.00 0.43 0.00 94 1016.2
20260508034704 43 44 0.9 2.6 0.00 0.43 0.00 94 1015.9
20260508034604 43 41 0.9 2.6 0.00 0.43 0.00 94 1016.1
20260508034505 43 40 0.9 2.6 0.00 0.43 0.00 94 1016.1
20260508034404 43 40 0.9 2.6 0.00 0.43 0.00 94 1016.1
20260508034304 43 39 0.9 2.6 0.00 0.43 0.00 94 1016.0
20260508034205 43 37 0.9 2.6 0.00 0.43 0.00 94 1015.9
20260508034104 43 37 0.9 2.6 0.00 0.43 0.00 94 1016.1
20260508034011 43 36 0.9 2.6 0.00 0.43 0.00 94 1015.9
20260508034004 43 35 0.9 2.6 0.00 0.43 0.00 94 1015.9
20260508033911 43 33 0.0 2.6 0.00 0.43 0.00 94 1016.1
20260508033904 43 32 0.0 2.6 0.00 0.43 0.00 94 1016.1
20260508033604 43 0 0.0 0.0 0.00 0.43 0.00 94 1015.9
20260508033504 43 0 0.0 0.0 0.00 0.43 0.00 94 1016.1
20260508033404 43 0 0.0 0.0 0.00 0.43 0.00 94 1015.9
20260508033304 43 0 0.0 0.0 0.00 0.43 0.00 94 1015.9
20260508033211 43 360 0.0 0.9 0.00 0.43 0.00 94 1016.1
20260508032904 43 2 0.0 2.6 0.00 0.43 0.00 94 1016.0
20260508032804 43 1 0.9 2.6 0.00 0.43 0.00 94 1016.0
20260508032704 43 360 0.9 2.6 0.00 0.43 0.00 94 1016.0
20260508032604 43 359 0.9 2.6 0.00 0.43 0.00 94 1015.9
20260508032505 43 359 0.9 2.6 0.00 0.43 0.00 94 1015.9
20260508032404 43 358 0.9 2.6 0.00 0.43 0.00 94 1015.9
20260508032306 43 358 1.7 2.6 0.00 0.43 0.00 94 1016.0
20260508032204 43 358 1.7 2.6 0.00 0.43 0.00 94 1016.0
20260508032104 43 357 1.7 2.6 0.00 0.43 0.00 94 1016.0
20260508032004 43 356 1.7 2.6 0.00 0.43 0.00 94 1015.9
20260508031904 43 356 1.7 2.6 0.00 0.43 0.00 94 1015.9
20260508031804 43 355 1.7 2.6 0.00 0.43 0.00 94 1016.0
20260508031705 43 355 1.7 2.6 0.00 0.43 0.00 94 1015.9
20260508031605 43 355 1.7 2.6 0.00 0.43 0.00 94 1016.0
20260508031504 43 355 1.7 2.6 0.00 0.43 0.00 94 1016.0
20260508031404 43 355 1.7 2.6 0.00 0.43 0.00 94 1015.9
20260508031304 43 354 1.7 2.6 0.00 0.43 0.00 94 1016.0
20260508031204 43 354 1.7 2.6 0.00 0.43 0.00 94 1015.9
20260508031105 44 353 1.7 2.6 0.00 0.43 0.00 94 1016.0
20260508031004 44 352 1.7 2.6 0.00 0.43 0.00 94 1015.9
20260508030904 44 351 1.7 2.6 0.00 0.43 0.00 94 1016.0
20260508030804 44 350 1.7 2.6 0.00 0.43 0.00 94 1015.9
20260508030704 44 349 1.7 2.6 0.00 0.43 0.00 94 1016.0
20260508030604 44 348 1.7 2.6 0.00 0.44 0.00 94 1015.8
20260508030504 44 347 1.7 2.6 0.00 0.44 0.00 94 1015.7
20260508030304 44 347 1.7 2.6 0.00 0.44 0.00 94 1015.9
20260508030204 44 347 1.7 2.6 0.00 0.44 0.00 94 1015.9
20260508030104 44 348 1.7 2.6 0.00 0.44 0.00 94 1016.1
20260508030005 44 349 1.7 2.6 0.00 0.44 0.00 94 1015.9
20260508025904 44 349 1.7 2.6 0.00 0.44 0.00 94 1015.8
20260508025704 44 352 1.7 2.6 0.00 0.44 0.00 94 1015.8
20260508025604 44 356 1.7 2.6 0.00 0.44 0.00 94 1016.0
20260508025504 44 356 1.7 2.6 0.00 0.44 0.00 94 1015.9
20260508025404 44 355 1.7 2.6 0.00 0.44 0.00 94 1015.8
20260508025306 44 355 1.7 2.6 0.00 0.44 0.00 94 1015.9
20260508025204 44 355 1.7 2.6 0.00 0.44 0.00 94 1016.0
20260508025111 44 355 1.7 2.6 0.00 0.44 0.00 94 1016.0
20260508025005 44 355 0.9 2.6 0.00 0.44 0.00 94 1015.8
20260508024804 44 356 0.9 2.6 0.00 0.44 0.00 94 1016.0
20260508024704 44 356 0.9 2.6 0.00 0.44 0.00 94 1015.9
20260508024604 44 347 0.9 1.7 0.00 0.44 0.00 94 1016.0
20260508024504 44 348 0.0 1.7 0.00 0.44 0.00 94 1015.9
20260508024404 44 354 0.0 1.7 0.00 0.44 0.00 94 1015.9
20260508024304 44 0 0.0 0.0 0.00 0.44 0.00 94 1016.0
20260508024204 44 0 0.0 0.0 0.00 0.44 0.00 94 1015.9
20260508024004 44 0 0.0 0.0 0.00 0.44 0.00 94 1016.0
20260508023904 44 0 0.0 0.0 0.00 0.44 0.00 94 1015.8
20260508023804 44 0 0.0 0.0 0.00 0.44 0.00 94 1016.0
20260508023704 44 0 0.0 0.0 0.00 0.44 0.00 94 1015.7
20260508023604 44 0 0.0 0.0 0.00 0.44 0.00 94 1016.0
20260508023504 44 0 0.0 0.0 0.00 0.44 0.00 94 1015.9
20260508023404 44 0 0.0 0.0 0.00 0.44 0.00 94 1015.8
20260508023304 44 0 0.0 0.0 0.00 0.44 0.00 94 1015.8
20260508023204 44 0 0.0 0.0 0.00 0.44 0.00 94 1016.0
20260508023104 44 0 0.0 0.0 0.00 0.44 0.00 94 1016.0
20260508023004 44 0 0.0 0.0 0.00 0.44 0.00 94 1016.1
20260508022904 44 0 0.0 0.0 0.00 0.44 0.00 94 1016.0
20260508022804 44 0 0.0 0.0 0.00 0.44 0.00 94 1016.1
20260508022704 44 0 0.0 0.0 0.00 0.44 0.00 94 1016.1
20260508022604 44 0 0.0 0.0 0.00 0.44 0.00 94 1016.0
20260508022504 44 0 0.0 0.0 0.00 0.44 0.00 94 1016.1
20260508022307 44 0 0.0 0.0 0.00 0.44 0.00 94 1015.9
20260508022204 44 0 0.0 0.0 0.00 0.44 0.00 94 1016.0
20260508022104 44 0 0.0 0.0 0.00 0.44 0.00 94 1016.0
20260508022004 44 0 0.0 0.0 0.00 0.44 0.00 94 1016.0
20260508021904 44 0 0.0 0.0 0.00 0.44 0.00 94 1016.0
20260508021804 44 0 0.0 0.0 0.00 0.44 0.00 94 1016.0
20260508021606 44 0 0.0 0.0 0.00 0.44 0.00 94 1016.0
20260508021505 44 0 0.0 0.0 0.00 0.44 0.00 94 1016.0
20260508021404 44 0 0.0 0.0 0.00 0.44 0.00 94 1016.1
20260508021305 44 0 0.0 0.0 0.00 0.44 0.00 94 1016.0
20260508021204 44 0 0.0 0.0 0.00 0.44 0.00 94 1016.0
20260508021104 44 0 0.0 0.0 0.00 0.44 0.00 94 1015.9
20260508021004 44 87 0.0 1.7 0.00 0.44 0.00 94 1015.8
20260508020904 44 83 0.0 1.7 0.00 0.44 0.00 94 1016.1
20260508020804 44 83 0.0 1.7 0.00 0.44 0.00 94 1015.8
20260508020604 44 83 0.0 1.7 0.00 0.44 0.00 94 1016.0
20260508020504 44 83 0.0 1.7 0.00 0.44 0.00 94 1016.0
20260508020404 44 83 0.0 1.7 0.00 0.44 0.00 94 1016.0
20260508020204 44 83 0.0 1.7 0.00 0.44 0.00 94 1016.0
20260508020104 44 83 0.0 1.7 0.00 0.44 0.00 94 1016.0
20260508020005 44 69 0.0 0.9 0.00 0.44 0.00 94 1015.9
20260508015904 44 0 0.0 0.0 0.00 0.44 0.00 94 1016.0
20260508015804 44 0 0.0 0.0 0.00 0.44 0.00 94 1016.0
20260508015604 44 0 0.0 0.0 0.00 0.44 0.00 94 1015.8
20260508015504 44 92 0.0 0.9 0.00 0.44 0.00 94 1016.0
20260508015404 44 92 0.0 1.7 0.00 0.44 0.00 94 1015.9
20260508015306 44 93 0.0 1.7 0.00 0.44 0.00 94 1015.9
20260508015004 44 93 0.0 1.7 0.00 0.44 0.00 94 1015.9
20260508014911 44 85 0.0 1.7 0.00 0.44 0.00 94 1016.0
20260508014904 44 83 0.0 1.7 0.00 0.44 0.00 94 1016.0
20260508014811 44 75 0.0 3.5 0.00 0.44 0.00 94 1016.0
20260508014804 44 74 0.0 3.5 0.00 0.44 0.00 94 1016.0
20260508014712 43 72 0.9 3.5 0.00 0.44 0.00 94 1015.9
20260508014404 43 71 0.9 3.5 0.00 0.44 0.00 94 1015.9
20260508014304 43 67 0.9 3.5 0.00 0.44 0.00 94 1016.0
20260508014104 43 63 0.9 3.5 0.00 0.44 0.00 94 1015.9
20260508014004 44 63 0.9 3.5 0.00 0.44 0.00 94 1015.9
20260508013804 44 63 0.9 3.5 0.00 0.44 0.00 94 1015.9
20260508013704 44 61 0.9 2.6 0.00 0.44 0.00 94 1016.1
20260508013604 44 61 0.9 2.6 0.00 0.44 0.00 94 1016.0
20260508013504 44 59 0.9 2.6 0.00 0.44 0.00 94 1016.0
20260508013411 44 50 0.0 2.6 0.00 0.44 0.00 94 1015.9
20260508013304 44 41 0.0 2.6 0.00 0.44 0.00 94 1015.9
20260508013104 44 0 0.0 0.0 0.00 0.44 0.00 94 1015.9
20260508013004 44 17 0.0 0.9 0.00 0.44 0.00 94 1015.8
20260508012904 44 17 0.0 1.7 0.00 0.44 0.00 94 1015.9
20260508012811 44 17 0.0 1.7 0.00 0.44 0.00 94 1016.0
20260508012704 44 16 0.0 1.7 0.00 0.44 0.00 94 1015.8
20260508012505 44 16 0.0 1.7 0.00 0.44 0.00 94 1015.9
20260508012404 44 16 0.0 1.7 0.00 0.44 0.00 94 1016.0
20260508012307 44 16 0.0 1.7 0.00 0.44 0.00 94 1016.0
20260508012204 44 16 0.0 1.7 0.00 0.44 0.00 94 1016.0
20260508012104 44 16 0.0 1.7 0.00 0.44 0.00 94 1016.0
20260508012004 44 16 0.0 1.7 0.00 0.44 0.00 94 1016.0
20260508011904 44 16 0.0 0.9 0.00 0.44 0.00 94 1016.0
20260508011804 44 27 0.0 0.9 0.00 0.44 0.00 94 1016.1
20260508011704 44 37 0.0 1.7 0.00 0.44 0.00 94 1016.0
20260508011604 44 44 0.0 1.7 0.00 0.44 0.00 94 1015.8
20260508011505 44 53 0.0 1.7 0.00 0.45 0.00 94 1016.0
20260508011404 44 54 0.9 1.7 0.00 0.45 0.00 94 1016.1
20260508011305 44 54 0.9 1.7 0.00 0.45 0.00 94 1016.1
20260508011206 44 55 0.9 1.7 0.00 0.45 0.00 94 1015.9
20260508011104 44 57 0.9 1.7 0.00 0.45 0.00 94 1015.6
20260508011005 44 56 0.9 1.7 0.00 0.45 0.00 94 1015.9
20260508010907 44 55 0.9 1.7 0.00 0.45 0.00 94 1016.0
20260508010804 44 54 0.9 1.7 0.00 0.46 0.00 94 1016.0
20260508010705 44 54 0.9 1.7 0.00 0.46 0.00 94 1015.7
20260508010604 44 53 0.9 1.7 0.00 0.47 0.00 94 1016.0
20260508010509 44 53 0.9 1.7 0.00 0.49 0.00 94 1016.1
20260508010406 44 52 0.9 1.7 0.00 0.49 0.00 94 1016.0
20260508010304 44 53 0.9 1.7 0.00 0.51 0.00 94 1015.9
20260508010204 44 51 0.9 1.7 0.00 0.51 0.00 94 1015.9
20260508010005 44 50 0.9 2.6 0.00 0.51 0.00 94 1015.9
20260508005904 44 50 0.9 2.6 0.00 0.51 0.00 94 1015.9
20260508005804 44 52 0.9 2.6 0.00 0.51 0.00 94 1015.9
20260508005504 44 53 1.7 3.5 0.00 0.50 0.00 94 1016.0
20260508005404 44 52 1.7 3.5 0.00 0.50 0.00 94 1016.1
20260508005204 44 51 1.7 3.5 0.00 0.50 0.00 94 1016.0
20260508005104 44 51 1.7 3.5 0.00 0.50 0.00 94 1016.2
20260508005005 44 51 1.7 3.5 0.00 0.50 0.00 94 1016.1
20260508004904 44 51 1.7 3.5 0.00 0.50 0.00 94 1016.1
20260508004804 44 50 1.7 3.5 0.00 0.50 0.00 94 1016.0
20260508004604 44 50 1.7 2.6 0.00 0.50 0.00 94 1016.0
20260508004505 44 49 1.7 2.6 0.00 0.50 0.00 94 1016.1
20260508004404 44 48 1.7 2.6 0.00 0.50 0.00 94 1016.1
20260508004304 44 48 1.7 2.6 0.00 0.51 0.00 94 1016.1
20260508004104 44 45 1.7 2.6 0.00 0.51 0.00 94 1015.9
20260508004004 44 43 1.7 2.6 0.00 0.51 0.00 94 1016.2
20260508003904 44 44 1.7 2.6 0.00 0.51 0.00 94 1016.2
20260508003804 43 44 1.7 3.5 0.00 0.51 0.00 94 1016.0
20260508003704 43 46 1.7 3.5 0.00 0.51 0.00 94 1016.1
20260508003604 44 46 2.6 5.2 0.00 0.51 0.00 94 1015.9
20260508003504 44 45 2.6 5.2 0.00 0.51 0.00 94 1016.1
20260508003304 43 45 2.6 5.2 0.00 0.51 0.00 94 1016.1
20260508003204 43 45 2.6 5.2 0.00 0.51 0.00 94 1016.1
20260508003104 44 46 2.6 5.2 0.00 0.51 0.00 94 1015.9
20260508003005 44 48 2.6 5.2 0.00 0.52 0.00 94 1016.0
20260508002704 44 43 2.6 5.2 0.00 0.52 0.00 94 1016.1
20260508002604 44 41 2.6 3.5 0.00 0.52 0.00 94 1016.0
20260508002504 44 40 2.6 3.5 0.00 0.52 0.00 94 1016.1
20260508002404 44 39 2.6 3.5 0.00 0.52 0.00 94 1016.2
20260508002306 44 38 2.6 3.5 0.00 0.52 0.00 94 1016.0
20260508002205 44 36 2.6 3.5 0.00 0.52 0.00 94 1016.1
20260508002105 44 34 2.6 3.5 0.00 0.52 0.00 94 1016.0
20260508002005 44 32 1.7 3.5 0.00 0.52 0.00 94 1016.1
20260508001905 44 30 1.7 3.5 0.00 0.52 0.00 94 1016.0
20260508001805 44 30 1.7 3.5 0.00 0.52 0.00 94 1015.9
20260508001605 44 33 0.9 3.5 0.00 0.52 0.00 94 1016.1
20260508001511 44 32 0.9 2.6 0.00 0.52 0.00 94 1016.0
20260508001504 44 31 0.9 2.6 0.00 0.52 0.00 94 1016.0
20260508001404 44 30 0.9 2.6 0.00 0.52 0.00 94 1016.0
20260508001204 44 31 0.0 2.6 0.00 0.52 0.00 94 1016.0
20260508001104 44 0 0.0 0.0 0.00 0.52 0.00 94 1015.9
20260508001004 44 0 0.0 0.0 0.00 0.52 0.00 94 1016.0
20260508000904 44 0 0.0 0.0 0.00 0.52 0.00 94 1016.2
20260508000804 44 0 0.0 0.0 0.00 0.52 0.00 94 1015.9
20260508000704 44 0 0.0 0.0 0.00 0.52 0.00 94 1015.9
20260508000604 44 0 0.0 0.0 0.00 0.52 0.00 94 1016.1
20260508000504 44 0 0.0 0.0 0.00 0.52 0.00 94 1016.0
20260508000405 44 0 0.0 0.0 0.00 0.52 0.00 94 1016.1
20260508000305 44 0 0.0 0.0 0.00 0.52 0.00 94 1015.9
20260508000205 44 0 0.0 0.0 0.00 0.52 0.00 94 1016.2
20260508000104 44 0 0.0 0.0 0.00 0.52 0.00 94 1016.1
20260508000011 44 0 0.0 0.0 0.00 0.52 0.00 94 1016.0
20260507235904 44 0 0.0 0.0 0.00 0.52 0.00 94 1016.3
20260507235604 44 0 0.0 0.0 0.00 0.52 0.00 94 1016.3
20260507235504 44 0 0.0 0.0 0.00 0.52 0.00 94 1016.1
20260507235404 44 0 0.0 0.0 0.00 0.52 0.00 94 1015.9
20260507235306 44 0 0.0 0.0 0.00 0.52 0.00 94 1016.2
20260507235204 44 0 0.0 0.0 0.00 0.52 0.00 94 1016.3
20260507235104 44 0 0.0 0.0 0.00 0.52 0.00 94 1016.2
20260507235005 44 0 0.0 0.0 0.00 0.52 0.00 94 1016.2
20260507234904 44 0 0.0 0.0 0.00 0.52 0.00 94 1016.2
20260507234804 44 0 0.0 0.0 0.00 0.52 0.00 94 1016.0
20260507234704 44 0 0.0 0.0 0.00 0.52 0.00 94 1016.2
20260507234504 44 0 0.0 0.0 0.00 0.52 0.00 94 1016.2
20260507234404 44 0 0.0 0.0 0.00 0.52 0.00 94 1016.1
20260507234304 44 60 0.0 0.9 0.00 0.52 0.00 94 1016.1
20260507234204 44 64 0.0 1.7 0.00 0.52 0.00 94 1016.2
20260507234104 44 62 0.0 1.7 0.00 0.52 0.00 94 1016.0
20260507234004 44 58 0.0 1.7 0.00 0.52 0.00 94 1016.0
20260507233904 44 55 0.0 1.7 0.00 0.52 0.00 94 1016.1
20260507233804 44 53 0.9 1.7 0.00 0.52 0.00 94 1016.1
20260507233704 44 52 0.9 1.7 0.00 0.52 0.00 94 1016.1
20260507233604 44 51 0.9 1.7 0.00 0.52 0.00 94 1016.3
20260507233505 44 49 0.9 2.6 0.00 0.52 0.00 94 1015.9
20260507233404 44 49 0.9 2.6 0.00 0.52 0.00 94 1016.1
20260507233304 44 49 0.9 2.6 0.00 0.52 0.00 94 1016.0
20260507233212 44 47 0.9 2.6 0.00 0.52 0.00 94 1016.2
20260507232904 44 45 0.9 2.6 0.00 0.52 0.00 94 1015.9
20260507232804 44 45 0.9 2.6 0.00 0.52 0.00 94 1016.2
20260507232704 44 45 0.0 2.6 0.00 0.52 0.00 94 1016.1
20260507232504 44 49 0.0 2.6 0.00 0.52 0.00 94 1016.1
20260507232404 44 0 0.0 0.0 0.00 0.52 0.00 94 1016.1
20260507232306 44 0 0.0 0.0 0.00 0.52 0.00 94 1016.2
20260507232204 44 0 0.0 0.0 0.00 0.52 0.00 94 1016.2
20260507232104 44 0 0.0 0.0 0.00 0.52 0.00 94 1016.2
20260507232004 44 0 0.0 0.0 0.00 0.52 0.00 94 1016.4
20260507231904 44 0 0.0 0.0 0.00 0.52 0.00 94 1016.3
20260507231804 44 0 0.0 0.0 0.00 0.52 0.00 94 1016.3
20260507231704 44 0 0.0 0.0 0.00 0.52 0.00 94 1016.3
20260507231606 44 0 0.0 0.0 0.00 0.52 0.00 94 1016.3
20260507231504 44 0 0.0 0.0 0.00 0.52 0.00 94 1016.2
20260507231404 44 0 0.0 0.0 0.00 0.52 0.00 94 1016.3
20260507231304 44 0 0.0 0.0 0.00 0.52 0.00 94 1016.3
20260507231104 44 0 0.0 0.0 0.00 0.52 0.00 94 1016.2
20260507231004 44 0 0.0 0.0 0.00 0.52 0.00 94 1016.1
20260507230804 44 0 0.0 0.0 0.00 0.52 0.00 94 1016.0
20260507230705 44 0 0.0 0.0 0.00 0.52 0.00 94 1016.1
20260507230604 44 0 0.0 0.0 0.00 0.52 0.00 94 1016.3
20260507230304 44 0 0.0 0.0 0.00 0.52 0.00 94 1016.1
20260507230204 44 0 0.0 0.0 0.00 0.52 0.00 94 1016.1
20260507230104 44 0 0.0 0.0 0.00 0.52 0.00 94 1016.2
20260507230005 44 0 0.0 0.0 0.00 0.52 0.00 94 1016.3
20260507225904 44 0 0.0 0.0 0.00 0.52 0.00 94 1016.1
20260507225804 44 0 0.0 0.0 0.00 0.52 0.00 94 1016.0
20260507225704 44 0 0.0 0.0 0.00 0.52 0.00 94 1016.2
20260507225604 44 0 0.0 0.0 0.00 0.52 0.00 94 1016.1
20260507225504 44 0 0.0 0.0 0.00 0.52 0.00 94 1016.0
20260507225404 44 0 0.0 0.0 0.00 0.52 0.00 94 1016.1
20260507225306 44 0 0.0 0.0 0.00 0.52 0.00 94 1016.1
20260507225204 44 0 0.0 0.0 0.00 0.52 0.00 94 1016.1
20260507225104 44 0 0.0 0.0 0.00 0.52 0.00 94 1016.2
20260507224904 44 0 0.0 0.0 0.00 0.52 0.00 94 1016.0
20260507224804 44 0 0.0 0.0 0.00 0.52 0.00 94 1016.0
20260507224705 44 0 0.0 0.0 0.00 0.52 0.00 94 1016.1
20260507224604 44 0 0.0 0.0 0.00 0.52 0.00 94 1016.0
20260507224505 44 0 0.0 0.0 0.00 0.52 0.00 94 1016.2
20260507224404 44 0 0.0 0.0 0.00 0.52 0.00 94 1016.0
20260507224204 44 0 0.0 0.0 0.00 0.52 0.00 94 1016.1
20260507224105 44 0 0.0 0.0 0.00 0.52 0.00 94 1015.9
20260507224004 44 0 0.0 0.0 0.00 0.52 0.00 94 1016.0
20260507223904 44 0 0.0 0.0 0.00 0.52 0.00 94 1015.9
20260507223804 44 0 0.0 0.0 0.00 0.52 0.00 94 1016.0
20260507223705 44 0 0.0 0.0 0.00 0.52 0.00 94 1016.1
20260507223607 44 0 0.0 0.0 0.00 0.52 0.00 94 1016.1
20260507223504 44 36 0.0 0.9 0.00 0.52 0.00 94 1016.0
20260507223404 44 35 0.0 1.7 0.00 0.52 0.00 94 1015.9
20260507223304 44 35 0.0 1.7 0.00 0.52 0.00 94 1016.1
20260507223204 44 37 0.0 1.7 0.00 0.52 0.00 94 1016.0
20260507223104 44 37 0.0 1.7 0.00 0.52 0.00 94 1016.0
20260507223004 44 37 0.0 1.7 0.00 0.52 0.00 94 1015.8
20260507222904 44 37 0.0 1.7 0.00 0.52 0.00 94 1016.0
20260507222704 44 37 0.0 1.7 0.00 0.52 0.00 94 1015.8
20260507222604 44 37 0.0 1.7 0.00 0.52 0.00 94 1016.0
20260507222504 44 37 0.0 1.7 0.00 0.52 0.00 94 1016.0
20260507222405 44 37 0.0 1.7 0.00 0.52 0.00 94 1016.1
20260507222306 44 38 0.0 1.7 0.00 0.52 0.00 94 1016.1
20260507222204 44 36 0.0 1.7 0.00 0.52 0.00 94 1016.1
20260507222004 44 0 0.0 0.0 0.00 0.52 0.00 94 1016.1
20260507221905 44 0 0.0 0.0 0.00 0.52 0.00 94 1016.2
20260507221804 44 0 0.0 0.0 0.00 0.52 0.00 94 1016.0
20260507221704 44 0 0.0 0.0 0.00 0.52 0.00 94 1016.1
20260507221611 44 0 0.0 0.0 0.00 0.52 0.00 94 1016.1
20260507221504 44 0 0.0 0.0 0.00 0.52 0.00 94 1016.0
20260507221311 44 0 0.0 0.0 0.00 0.52 0.00 94 1016.1
20260507221204 44 0 0.0 0.0 0.00 0.52 0.00 94 1016.1
20260507221005 44 0 0.0 0.0 0.00 0.52 0.00 94 1016.1
20260507220904 44 0 0.0 0.0 0.00 0.52 0.00 94 1016.1
20260507220804 44 0 0.0 0.0 0.00 0.52 0.00 94 1016.0
20260507220704 44 0 0.0 0.0 0.00 0.52 0.00 94 1016.2
20260507220604 44 0 0.0 0.0 0.00 0.52 0.00 94 1016.1
20260507220504 44 0 0.0 0.0 0.00 0.52 0.00 94 1016.0
20260507220404 44 0 0.0 0.0 0.00 0.52 0.00 94 1016.1
20260507220304 44 0 0.0 0.0 0.00 0.52 0.00 94 1016.0
20260507220251 44 0 0.0 0.0 0.00 0.52 0.00 94 1016.1
20260507220204 44 0 0.0 0.0 0.00 0.52 0.00 94 1016.1
20260507220104 44 0 0.0 0.0 0.00 0.52 0.00 94 1016.1
20260507215904 44 0 0.0 0.0 0.00 0.52 0.52 94 1016.0
20260507215804 44 0 0.0 0.0 0.00 0.52 0.52 94 1016.1
20260507215704 44 0 0.0 0.0 0.00 0.52 0.52 94 1016.0
20260507215604 44 0 0.0 0.0 0.00 0.52 0.52 94 1016.3
20260507215505 44 0 0.0 0.0 0.00 0.52 0.52 94 1016.0
20260507215404 44 0 0.0 0.0 0.00 0.52 0.52 94 1016.1
20260507215306 44 0 0.0 0.0 0.00 0.52 0.52 94 1016.1
20260507215204 44 0 0.0 0.0 0.00 0.52 0.52 94 1015.9
20260507215104 44 0 0.0 0.0 0.00 0.52 0.52 94 1016.0
20260507214904 44 0 0.0 0.0 0.00 0.52 0.52 94 1016.1
20260507214804 44 0 0.0 0.0 0.00 0.52 0.52 94 1016.1
20260507214704 44 45 0.0 0.9 0.00 0.52 0.52 94 1016.0
20260507214604 44 45 0.0 0.9 0.00 0.52 0.52 94 1016.1
20260507214505 44 44 0.0 0.9 0.00 0.52 0.52 94 1016.0
20260507214404 44 44 0.0 1.7 0.00 0.52 0.52 94 1016.0
20260507214304 44 42 0.0 1.7 0.00 0.52 0.52 94 1016.1
20260507214204 44 40 0.0 1.7 0.00 0.52 0.52 94 1015.9
20260507214004 44 41 0.9 2.6 0.00 0.52 0.52 94 1016.1
20260507213904 44 44 0.9 2.6 0.00 0.52 0.52 94 1016.0
20260507213804 44 45 0.9 2.6 0.00 0.52 0.52 94 1015.9
20260507213704 44 47 0.9 2.6 0.00 0.52 0.52 94 1015.9
20260507213504 43 50 0.9 2.6 0.00 0.52 0.52 94 1015.9
20260507213404 44 51 0.9 2.6 0.00 0.52 0.52 94 1016.0
20260507213104 44 60 0.9 2.6 0.00 0.52 0.52 94 1016.1
20260507213004 44 61 0.9 1.7 0.00 0.52 0.52 94 1016.1
20260507212905 44 61 0.9 1.7 0.00 0.52 0.52 94 1016.2
20260507212804 44 60 0.9 1.7 0.00 0.52 0.52 94 1016.2
20260507212704 44 59 0.9 1.7 0.00 0.52 0.52 94 1016.2
20260507212604 44 58 0.9 1.7 0.00 0.52 0.52 94 1016.0
20260507212504 44 57 0.9 1.7 0.00 0.52 0.52 94 1016.1
20260507212307 44 55 0.9 1.7 0.00 0.52 0.51 94 1016.2
20260507212204 44 55 0.9 1.7 0.00 0.52 0.51 94 1016.0
20260507212104 44 58 0.9 1.7 0.00 0.52 0.51 94 1016.1
20260507211904 43 55 0.9 1.7 0.00 0.52 0.51 94 1016.0
20260507211804 43 58 0.9 1.7 0.00 0.52 0.51 94 1016.1
20260507211704 43 58 0.9 1.7 0.00 0.53 0.51 94 1016.1
20260507211604 43 55 0.9 2.6 0.00 0.53 0.51 94 1016.0
20260507211512 43 55 0.9 2.6 0.00 0.53 0.51 94 1015.9
20260507211504 43 56 0.9 2.6 0.00 0.53 0.51 94 1015.9
20260507211404 43 54 0.9 2.6 0.00 0.53 0.51 94 1016.0
20260507211204 43 49 1.7 2.6 0.00 0.54 0.51 94 1016.1
20260507211104 43 48 1.7 2.6 0.00 0.54 0.51 94 1015.9
20260507210904 43 46 1.7 2.6 0.00 0.55 0.51 94 1016.1
20260507210804 43 45 1.7 2.6 0.00 0.56 0.51 94 1015.9
20260507210704 43 45 1.7 2.6 0.00 0.56 0.51 94 1016.1
20260507210604 43 44 1.7 3.5 0.00 0.57 0.51 94 1016.1
20260507210505 43 44 1.7 3.5 0.00 0.58 0.51 94 1016.1
20260507210304 43 44 1.7 3.5 0.00 0.58 0.51 94 1016.1
20260507210204 43 45 1.7 3.5 0.00 0.59 0.51 94 1015.9
20260507210104 43 42 1.7 3.5 0.00 0.59 0.51 94 1016.1
20260507210005 43 44 1.7 5.2 0.00 0.60 0.51 94 1016.2
20260507205904 43 46 1.7 5.2 0.00 0.60 0.51 94 1016.3
20260507205804 43 45 1.7 5.2 0.00 0.61 0.51 94 1016.0
20260507205704 43 44 1.7 5.2 0.00 0.61 0.51 94 1016.0
20260507205604 43 44 1.7 5.2 0.00 0.61 0.51 94 1016.1
20260507205504 43 43 1.7 5.2 0.00 0.62 0.51 94 1016.0
20260507205404 43 43 1.7 5.2 0.00 0.63 0.51 94 1016.2
20260507205306 43 42 2.6 5.2 0.00 0.64 0.51 94 1016.1
20260507205204 43 43 2.6 5.2 0.00 0.68 0.51 94 1016.1
20260507205104 43 45 2.6 5.2 0.00 0.68 0.51 94 1016.1
20260507205011 43 45 2.6 5.2 0.00 0.69 0.51 94 1016.1
20260507205005 43 44 2.6 5.2 0.00 0.69 0.51 94 1016.1
20260507204904 43 43 2.6 5.2 0.00 0.70 0.51 94 1016.2
20260507204704 43 42 2.6 5.2 0.00 0.70 0.51 94 1015.9
20260507204604 43 41 2.6 5.2 0.00 0.70 0.51 94 1016.2
20260507204505 43 41 3.5 5.2 0.00 0.70 0.51 94 1016.0
20260507204404 43 41 3.5 5.2 0.00 0.70 0.51 94 1015.9
20260507204304 43 42 3.5 5.2 0.00 0.70 0.51 94 1016.0
20260507204104 43 40 3.5 5.2 0.00 0.70 0.51 94 1016.0
20260507204005 43 38 3.5 5.2 0.00 0.70 0.51 94 1015.9
20260507203904 43 40 3.5 5.2 0.00 0.70 0.51 94 1015.9
20260507203804 43 41 3.5 5.2 0.00 0.70 0.51 94 1015.9
20260507203704 43 41 3.5 5.2 0.00 0.70 0.51 94 1015.9
20260507203604 43 42 3.5 5.2 0.00 0.70 0.51 94 1015.9
20260507203505 43 41 3.5 5.2 0.00 0.70 0.51 94 1015.9
20260507203404 43 41 3.5 5.2 0.00 0.70 0.51 94 1016.0
20260507203211 43 41 3.5 5.2 0.00 0.70 0.51 94 1015.9
20260507203204 43 40 3.5 5.2 0.00 0.70 0.51 94 1015.9
20260507203104 43 39 3.5 5.2 0.00 0.70 0.51 94 1016.0
20260507202911 44 37 3.5 5.2 0.00 0.70 0.51 94 1015.9
20260507202904 44 36 3.5 5.2 0.00 0.70 0.51 94 1015.9
20260507202804 44 34 3.5 5.2 0.00 0.70 0.51 94 1015.9
20260507202712 44 34 2.6 5.2 0.00 0.70 0.51 94 1015.9
20260507202604 44 33 2.6 5.2 0.00 0.71 0.51 94 1015.6
20260507202404 44 33 2.6 5.2 0.00 0.72 0.51 94 1015.8
20260507202306 44 32 2.6 5.2 0.00 0.72 0.51 94 1015.8
20260507202204 44 32 2.6 5.2 0.00 0.72 0.51 94 1015.8
20260507202104 44 34 2.6 5.2 0.00 0.72 0.51 94 1015.6
20260507202005 44 35 1.7 5.2 0.00 0.72 0.51 94 1015.8
20260507201904 44 34 1.7 3.5 0.00 0.72 0.51 94 1015.6
20260507201704 44 36 1.7 2.6 0.00 0.72 0.51 94 1015.7
20260507201604 44 37 1.7 2.6 0.00 0.72 0.51 94 1015.8
20260507201504 44 37 1.7 2.6 0.00 0.72 0.51 94 1015.6
20260507201404 44 38 1.7 2.6 0.00 0.72 0.51 94 1015.6
20260507201304 44 39 1.7 2.6 0.00 0.72 0.51 94 1015.5
20260507201212 44 39 1.7 3.5 0.00 0.73 0.51 94 1015.6
20260507201204 44 38 1.7 3.5 0.00 0.73 0.51 94 1015.6
20260507201104 44 36 1.7 5.2 0.00 0.73 0.51 94 1015.7
20260507200904 43 39 2.6 5.2 0.00 0.73 0.51 94 1015.8
20260507200804 43 40 2.6 5.2 0.00 0.73 0.51 94 1015.7
20260507200704 44 42 2.6 5.2 0.00 0.73 0.51 94 1015.7
20260507200604 44 44 2.6 5.2 0.00 0.73 0.51 94 1015.7
20260507200505 44 45 2.6 5.2 0.00 0.73 0.51 94 1015.7
20260507200412 43 44 2.6 5.2 0.00 0.75 0.51 94 1015.6
20260507200404 43 43 2.6 5.2 0.00 0.75 0.51 94 1015.6
20260507200304 43 43 2.6 5.2 0.00 0.75 0.51 94 1015.7
20260507200104 43 45 2.6 5.2 0.00 0.75 0.51 94 1015.5
20260507200006 43 44 3.5 5.2 0.00 0.75 0.51 94 1015.7
20260507195904 43 43 3.5 5.2 0.00 0.75 0.51 94 1015.5
20260507195804 44 44 3.5 5.2 0.00 0.75 0.51 94 1015.5
20260507195704 44 43 3.5 5.2 0.00 0.75 0.51 94 1015.5
20260507195604 44 42 3.5 5.2 0.00 0.75 0.51 94 1015.6
20260507195504 44 39 3.5 5.2 0.00 0.75 0.51 94 1015.6
20260507195404 44 39 3.5 5.2 0.00 0.75 0.51 94 1015.4
20260507195306 44 39 3.5 5.2 0.00 0.75 0.51 94 1015.5
20260507195204 44 38 3.5 5.2 0.00 0.75 0.51 94 1015.5
20260507195104 44 38 3.5 5.2 0.00 0.75 0.51 94 1015.4
20260507195004 44 38 3.5 5.2 0.00 0.75 0.51 94 1015.4
20260507194904 44 38 3.5 5.2 0.00 0.75 0.51 94 1015.5
20260507194804 44 38 3.5 5.2 0.00 0.75 0.51 94 1015.4
20260507194704 44 39 3.5 5.2 0.00 0.75 0.51 94 1015.5
20260507194604 44 39 3.5 5.2 0.00 0.75 0.51 94 1015.5
20260507194504 44 40 3.5 6.1 0.00 0.75 0.51 94 1015.4
20260507194404 44 43 3.5 6.1 0.00 0.75 0.51 94 1015.4
20260507194304 44 41 3.5 6.1 0.00 0.75 0.51 94 1015.5
20260507194204 44 41 3.5 6.1 0.00 0.75 0.51 94 1015.6
20260507194104 44 40 3.5 6.1 0.00 0.75 0.51 94 1015.6
20260507194004 44 40 3.5 6.1 0.00 0.75 0.51 94 1015.6
20260507193904 44 38 3.5 6.1 0.00 0.75 0.51 94 1015.5
20260507193604 44 31 3.5 6.1 0.00 0.75 0.51 94 1015.1
20260507193504 44 31 3.5 6.1 0.00 0.75 0.51 94 1015.5
20260507193404 44 28 3.5 6.1 0.00 0.75 0.51 94 1015.6
20260507193312 44 27 3.5 6.1 0.00 0.75 0.51 94 1015.4
20260507193204 44 25 3.5 6.1 0.00 0.75 0.51 94 1015.5
20260507193005 44 23 3.5 6.1 0.00 0.75 0.51 94 1015.4
20260507192911 44 23 3.5 6.1 0.00 0.75 0.51 94 1015.4
20260507192904 44 24 3.5 6.1 0.00 0.75 0.51 94 1015.4
20260507192804 44 24 3.5 6.1 0.00 0.75 0.51 94 1015.4
20260507192504 44 22 3.5 6.1 0.00 0.75 0.51 94 1015.4
20260507192404 44 21 2.6 6.1 0.00 0.75 0.51 94 1015.4
20260507192306 44 21 2.6 6.1 0.00 0.75 0.51 93 1015.4
20260507192205 44 22 2.6 5.2 0.00 0.75 0.51 93 1015.5
20260507192104 44 23 2.6 5.2 0.00 0.75 0.51 93 1015.5
20260507192004 44 23 2.6 5.2 0.00 0.75 0.51 93 1015.5
20260507191905 44 22 2.6 5.2 0.00 0.75 0.51 94 1015.3
20260507191804 44 22 2.6 5.2 0.00 0.75 0.51 93 1015.6
20260507191704 44 23 2.6 5.2 0.00 0.75 0.51 93 1015.4
20260507191605 44 23 2.6 5.2 0.00 0.75 0.51 93 1015.2
20260507191504 44 23 2.6 5.2 0.00 0.75 0.51 93 1015.4
20260507191404 44 24 2.6 3.5 0.00 0.75 0.51 93 1015.5
20260507191305 44 27 2.6 3.5 0.00 0.75 0.51 93 1015.3
20260507191204 44 30 2.6 3.5 0.00 0.75 0.51 93 1015.4
20260507191104 44 32 2.6 3.5 0.00 0.75 0.51 93 1015.4
20260507191004 44 34 2.6 3.5 0.00 0.75 0.51 93 1015.2
20260507190904 44 36 2.6 3.5 0.00 0.75 0.51 93 1015.3
20260507190804 44 37 2.6 3.5 0.00 0.75 0.51 93 1015.2
20260507190704 44 38 2.6 3.5 0.00 0.75 0.51 93 1015.2
20260507190604 44 40 2.6 3.5 0.00 0.75 0.51 93 1015.2
20260507190504 44 44 2.6 3.5 0.00 0.75 0.51 93 1015.2
20260507190404 44 45 2.6 5.2 0.00 0.75 0.51 93 1015.1
20260507190304 44 45 2.6 5.2 0.00 0.75 0.51 93 1015.2
20260507190204 44 46 2.6 5.2 0.00 0.75 0.51 93 1015.1
20260507190104 44 48 2.6 5.2 0.00 0.75 0.51 93 1015.0
20260507190006 44 47 2.6 5.2 0.00 0.75 0.51 93 1015.2
20260507185904 44 44 2.6 6.1 0.00 0.75 0.51 93 1015.1
20260507185704 44 44 3.5 6.1 0.00 0.75 0.51 93 1015.1
20260507185604 44 42 3.5 6.1 0.00 0.75 0.51 93 1015.1
20260507185404 44 40 3.5 6.1 0.00 0.75 0.51 93 1015.0
20260507185306 44 39 3.5 6.1 0.00 0.75 0.51 93 1015.0
20260507185204 44 38 3.5 6.1 0.00 0.75 0.51 93 1015.0
20260507185104 44 36 3.5 6.1 0.00 0.75 0.51 93 1015.0
20260507185004 44 35 2.6 6.1 0.00 0.75 0.51 93 1014.8
20260507184904 44 35 2.6 6.1 0.00 0.75 0.51 93 1015.1
20260507184804 44 35 2.6 5.2 0.00 0.75 0.51 93 1015.0
20260507184704 44 33 2.6 3.5 0.00 0.75 0.51 93 1014.7
20260507184604 44 34 2.6 3.5 0.00 0.75 0.51 93 1015.1
20260507184504 44 35 2.6 3.5 0.00 0.75 0.51 93 1015.0
20260507184404 44 33 2.6 3.5 0.00 0.75 0.51 93 1014.8
20260507184304 44 32 2.6 3.5 0.00 0.75 0.51 93 1014.8
20260507184204 44 32 2.6 3.5 0.00 0.75 0.51 93 1015.1
20260507184104 44 31 2.6 3.5 0.00 0.75 0.51 93 1015.1
20260507184004 44 33 1.7 3.5 0.00 0.75 0.51 93 1014.8
20260507183904 44 34 1.7 3.5 0.00 0.75 0.51 93 1015.0
20260507183804 44 35 1.7 3.5 0.00 0.75 0.51 93 1014.8
20260507183704 44 35 1.7 3.5 0.00 0.75 0.51 93 1014.7
20260507183604 44 35 1.7 3.5 0.00 0.75 0.51 93 1014.7
20260507183504 44 34 1.7 3.5 0.00 0.75 0.51 93 1014.8
20260507183304 44 34 1.7 3.5 0.00 0.75 0.51 93 1015.0
20260507183204 44 34 1.7 3.5 0.00 0.75 0.51 93 1014.8
20260507183105 44 34 1.7 3.5 0.00 0.75 0.51 93 1014.7
20260507183004 44 33 1.7 3.5 0.00 0.75 0.51 93 1015.1
20260507182904 44 32 1.7 3.5 0.00 0.75 0.51 93 1015.0
20260507182804 44 33 1.7 3.5 0.00 0.75 0.51 93 1014.8
20260507182704 44 33 1.7 3.5 0.00 0.75 0.51 93 1015.0
20260507182604 44 34 2.6 3.5 0.00 0.75 0.51 93 1014.8
20260507182505 44 34 2.6 3.5 0.00 0.75 0.51 93 1015.0
20260507182411 44 33 2.6 3.5 0.00 0.75 0.51 93 1015.0
20260507182306 44 33 2.6 3.5 0.00 0.75 0.51 93 1014.8
20260507182105 44 36 2.6 3.5 0.01 0.75 0.51 93 1014.8
20260507182005 44 37 2.6 3.5 0.01 0.75 0.51 93 1014.7
20260507181904 44 37 2.6 3.5 0.01 0.75 0.51 93 1014.7
20260507181804 44 37 2.6 3.5 0.01 0.75 0.51 93 1014.7
20260507181704 44 38 2.6 3.5 0.01 0.75 0.51 93 1014.6
20260507181606 44 39 1.7 3.5 0.01 0.75 0.51 93 1014.8
20260507181505 44 40 1.7 3.5 0.01 0.75 0.51 92 1014.7
20260507181404 44 41 1.7 3.5 0.01 0.75 0.51 92 1014.7
20260507181304 44 40 1.7 3.5 0.01 0.75 0.51 93 1014.8
20260507181204 44 38 1.7 3.5 0.01 0.75 0.51 93 1014.8
20260507181104 44 36 1.7 3.5 0.01 0.75 0.51 93 1014.8
20260507181004 44 35 1.7 3.5 0.01 0.75 0.51 93 1014.6
20260507180904 44 33 1.7 3.5 0.01 0.75 0.51 93 1015.0
20260507180804 44 31 1.7 3.5 0.01 0.75 0.51 93 1014.8
20260507180704 44 30 1.7 3.5 0.01 0.75 0.51 93 1014.7
20260507180604 44 29 2.6 3.5 0.01 0.75 0.51 93 1014.7
20260507180505 44 29 2.6 3.5 0.01 0.75 0.51 92 1014.8
20260507180406 44 31 2.6 3.5 0.00 0.74 0.51 92 1014.8
20260507180304 44 32 2.6 5.2 0.00 0.74 0.51 92 1014.8
20260507180204 44 32 2.6 5.2 0.00 0.74 0.51 92 1014.8
20260507180104 44 33 2.6 5.2 0.00 0.74 0.51 92 1014.5
20260507180005 44 34 3.5 6.1 0.00 0.74 0.51 92 1014.6
20260507175804 44 35 3.5 6.1 0.00 0.74 0.51 92 1014.6
20260507175704 44 34 3.5 6.1 0.00 0.74 0.51 92 1014.6
20260507175604 44 34 3.5 6.1 0.00 0.74 0.51 92 1014.7
20260507175505 44 33 3.5 6.1 0.00 0.74 0.51 92 1014.6
20260507175306 44 31 3.5 6.1 0.00 0.74 0.51 92 1014.7
20260507175204 44 30 3.5 6.1 0.00 0.74 0.51 92 1014.7
20260507175105 44 29 3.5 6.1 0.00 0.74 0.51 92 1014.6
20260507175005 44 29 3.5 6.1 0.00 0.74 0.51 92 1014.6
20260507174804 44 28 3.5 5.2 0.00 0.74 0.51 92 1014.6
20260507174704 44 29 3.5 5.2 0.00 0.74 0.51 92 1014.8
20260507174604 44 29 3.5 6.1 0.00 0.74 0.51 92 1014.4
20260507174504 44 30 3.5 6.1 0.00 0.74 0.51 92 1014.4
20260507174405 45 30 3.5 6.1 0.00 0.74 0.51 92 1014.7
20260507174304 44 30 3.5 6.1 0.00 0.74 0.51 92 1014.6
20260507174204 44 31 3.5 6.1 0.00 0.74 0.51 92 1014.6
20260507174104 45 31 3.5 6.1 0.00 0.74 0.51 92 1014.4
20260507174004 45 32 3.5 6.1 0.00 0.74 0.51 92 1014.5
20260507173904 45 32 3.5 6.1 0.00 0.74 0.51 92 1014.5
20260507173804 45 34 3.5 6.1 0.00 0.74 0.51 92 1014.5
20260507173605 45 34 3.5 6.1 0.00 0.74 0.51 92 1014.6
20260507173504 45 34 3.5 5.2 0.00 0.74 0.51 92 1014.5
20260507173404 45 35 2.6 5.2 0.00 0.74 0.51 92 1014.4
20260507173313 45 36 2.6 5.2 0.00 0.74 0.51 92 1014.5
20260507173204 45 36 2.6 5.2 0.00 0.74 0.51 92 1014.4
20260507173005 45 39 1.7 5.2 0.00 0.74 0.51 92 1014.6
20260507172904 45 40 1.7 3.5 0.00 0.74 0.51 92 1014.3
20260507172804 45 39 1.7 3.5 0.00 0.74 0.51 92 1014.4
20260507172705 45 37 1.7 3.5 0.00 0.74 0.51 92 1014.4
20260507172604 45 39 1.7 2.6 0.00 0.74 0.51 92 1014.5
20260507172504 45 40 1.7 2.6 0.00 0.74 0.51 92 1014.6
20260507172404 45 41 1.7 3.5 0.00 0.74 0.51 92 1014.5
20260507172307 45 42 1.7 3.5 0.00 0.74 0.51 92 1014.4
20260507172204 45 45 1.7 3.5 0.00 0.74 0.51 92 1014.4
20260507172104 45 45 1.7 3.5 0.00 0.74 0.50 92 1014.4
20260507172004 45 42 1.7 3.5 0.00 0.74 0.50 92 1014.3
20260507171905 45 42 1.7 3.5 0.00 0.74 0.50 92 1014.3
20260507171806 45 45 1.7 3.5 0.00 0.74 0.50 92 1014.3
20260507171704 45 48 1.7 3.5 0.00 0.74 0.50 92 1014.3
20260507171604 45 49 1.7 3.5 0.00 0.74 0.50 92 1014.1
20260507171504 45 49 1.7 3.5 0.00 0.74 0.50 92 1014.3
20260507171304 45 51 1.7 3.5 0.00 0.74 0.50 92 1014.3
20260507171206 45 50 1.7 3.5 0.00 0.74 0.50 92 1014.4
20260507171105 45 50 1.7 3.5 0.00 0.74 0.50 92 1014.4
20260507170904 45 55 0.9 2.6 0.00 0.74 0.50 92 1014.3
20260507170804 45 56 0.9 2.6 0.00 0.75 0.50 92 1014.1
20260507170705 45 56 0.9 2.6 0.00 0.75 0.50 92 1014.1
20260507170604 45 55 0.9 2.6 0.00 0.75 0.50 92 1014.2
20260507170506 45 56 0.9 2.6 0.00 0.75 0.50 92 1014.3
20260507170404 45 54 0.9 2.6 0.00 0.75 0.50 92 1014.2
20260507170304 45 53 0.9 2.6 0.00 0.75 0.50 92 1014.1
20260507170204 45 53 0.9 2.6 0.00 0.75 0.50 92 1014.2
20260507170104 45 53 0.9 2.6 0.00 0.75 0.50 92 1014.3
20260507165904 45 49 0.9 3.5 0.00 0.75 0.50 92 1014.2
20260507165804 45 50 0.9 3.5 0.00 0.75 0.50 92 1014.3
20260507165704 45 50 0.9 3.5 0.00 0.75 0.50 92 1014.3
20260507165604 45 51 0.9 3.5 0.00 0.75 0.50 92 1014.3
20260507165505 45 49 1.7 3.5 0.00 0.75 0.50 92 1014.3
20260507165404 45 51 1.7 3.5 0.00 0.75 0.50 92 1014.1
20260507165306 45 52 1.7 3.5 0.00 0.75 0.50 92 1014.1
20260507165204 45 52 1.7 3.5 0.00 0.75 0.50 92 1014.1
20260507165105 45 51 1.7 3.5 0.00 0.75 0.50 92 1014.1
20260507165011 45 51 1.7 6.1 0.00 0.75 0.50 92 1014.2
20260507165005 45 50 1.7 6.1 0.00 0.75 0.50 92 1014.2
20260507164904 45 50 1.7 6.1 0.00 0.75 0.50 92 1014.3
20260507164704 45 46 2.6 6.1 0.00 0.75 0.50 92 1014.0
20260507164605 45 44 2.6 6.1 0.00 0.75 0.50 92 1014.2
20260507164504 45 45 2.6 6.1 0.00 0.75 0.50 92 1014.1
20260507164304 45 43 2.6 6.1 0.00 0.75 0.50 92 1014.0
20260507164204 45 44 2.6 6.1 0.00 0.75 0.50 92 1014.1
20260507164104 45 45 2.6 6.1 0.00 0.75 0.50 92 1014.0
20260507164004 45 45 2.6 5.2 0.00 0.75 0.50 92 1014.2
20260507163904 45 46 2.6 5.2 0.01 0.75 0.50 92 1014.1
20260507163804 45 47 2.6 5.2 0.01 0.75 0.50 92 1014.1
20260507163704 45 46 2.6 5.2 0.01 0.75 0.50 92 1014.0
20260507163604 45 46 3.5 5.2 0.01 0.75 0.50 92 1014.1
20260507163504 45 46 3.5 5.2 0.01 0.75 0.50 92 1014.0
20260507163404 45 46 3.5 5.2 0.01 0.75 0.50 92 1014.0
20260507163304 45 46 3.5 5.2 0.01 0.75 0.50 92 1014.1
20260507163204 45 45 3.5 5.2 0.01 0.75 0.50 92 1014.2
20260507163104 45 44 3.5 6.1 0.01 0.75 0.50 92 1014.0
20260507163005 45 41 3.5 6.1 0.01 0.75 0.50 92 1014.2
20260507162904 46 38 3.5 6.1 0.01 0.75 0.50 92 1014.1
20260507162804 46 36 3.5 6.1 0.01 0.75 0.50 92 1014.0
20260507162704 46 33 3.5 6.1 0.01 0.75 0.50 92 1014.1
20260507162604 46 32 3.5 6.1 0.01 0.75 0.50 92 1013.9
20260507162504 46 31 4.3 6.1 0.01 0.75 0.50 92 1013.7
20260507162404 46 30 4.3 6.1 0.01 0.75 0.50 92 1013.9
20260507162204 46 33 3.5 6.1 0.01 0.75 0.50 92 1014.2
20260507162104 46 32 3.5 6.1 0.01 0.75 0.50 92 1013.9
20260507162007 46 36 3.5 6.1 0.01 0.75 0.50 92 1014.0
20260507161905 46 39 3.5 6.1 0.01 0.75 0.50 92 1014.0
20260507161805 46 43 3.5 6.1 0.01 0.75 0.50 92 1013.9
20260507161705 46 46 3.5 7.0 0.01 0.75 0.50 92 1013.9
20260507161605 46 45 3.5 7.8 0.01 0.75 0.50 92 1013.9
20260507161504 46 45 3.5 7.8 0.01 0.75 0.50 92 1013.9
20260507161404 46 46 3.5 7.8 0.01 0.75 0.50 92 1013.8
20260507161311 46 43 3.5 7.8 0.01 0.75 0.50 92 1013.8
20260507161204 46 40 3.5 7.8 0.01 0.75 0.50 92 1014.0
20260507161004 46 36 4.3 7.8 0.01 0.75 0.50 92 1014.1
20260507160904 46 35 4.3 7.8 0.01 0.75 0.50 92 1014.1
20260507160811 46 34 4.3 7.8 0.01 0.75 0.50 92 1013.9
20260507160804 46 33 4.3 7.8 0.01 0.75 0.50 92 1013.9
20260507160704 46 33 4.3 7.8 0.01 0.75 0.50 92 1014.0
20260507160611 46 35 4.3 7.8 0.01 0.75 0.50 92 1013.8
20260507160505 46 37 4.3 7.8 0.01 0.75 0.50 92 1013.8
20260507160411 46 37 4.3 7.8 0.02 0.75 0.50 91 1013.8
20260507160305 46 37 4.3 7.8 0.02 0.75 0.50 91 1013.9
20260507160104 46 38 4.3 8.7 0.01 0.74 0.50 92 1013.9
20260507160005 46 39 4.3 8.7 0.01 0.74 0.50 91 1013.9
20260507155904 46 41 3.5 8.7 0.01 0.74 0.50 91 1014.0
20260507155804 46 45 3.5 8.7 0.01 0.74 0.50 92 1013.9
20260507155704 46 47 3.5 8.7 0.01 0.74 0.50 92 1014.1
20260507155504 46 45 3.5 8.7 0.02 0.74 0.50 92 1013.7
20260507155404 46 45 3.5 8.7 0.02 0.74 0.50 92 1014.0
20260507155306 46 46 3.5 8.7 0.02 0.74 0.50 92 1013.9
20260507155204 46 48 3.5 8.7 0.02 0.74 0.50 92 1013.9
20260507155104 46 51 2.6 6.1 0.02 0.74 0.50 92 1014.0
20260507155004 46 50 3.5 7.0 0.02 0.74 0.50 92 1013.8
20260507154904 46 49 3.5 7.0 0.02 0.74 0.50 92 1013.8
20260507154804 46 48 3.5 7.0 0.02 0.74 0.50 92 1013.8
20260507154704 46 50 3.5 7.0 0.02 0.74 0.50 92 1013.7
20260507154504 46 47 4.3 7.0 0.02 0.74 0.50 92 1013.8
20260507154404 46 47 4.3 7.0 0.02 0.74 0.50 92 1013.8
20260507154304 46 47 4.3 7.0 0.02 0.74 0.50 92 1013.7
20260507154204 46 48 4.3 7.0 0.02 0.74 0.50 92 1013.8
20260507154104 46 47 4.3 7.0 0.02 0.74 0.50 92 1013.6
20260507154004 46 45 4.3 7.0 0.02 0.74 0.50 92 1013.7
20260507153904 46 43 4.3 7.0 0.02 0.74 0.50 92 1013.8
20260507153804 46 42 4.3 7.0 0.02 0.74 0.50 92 1013.7
20260507153704 46 40 4.3 7.0 0.02 0.74 0.50 92 1013.8
20260507153604 46 39 4.3 7.0 0.02 0.74 0.50 92 1013.6
20260507153504 46 40 4.3 7.0 0.02 0.74 0.50 92 1013.7
20260507153404 46 39 4.3 7.0 0.02 0.74 0.50 92 1013.6
20260507153304 46 37 4.3 7.0 0.02 0.74 0.50 92 1013.8
20260507153104 46 36 4.3 7.8 0.02 0.74 0.50 93 1013.6
20260507153004 46 38 4.3 8.7 0.02 0.74 0.50 93 1013.8
20260507152904 46 37 4.3 8.7 0.02 0.74 0.50 92 1013.7
20260507152811 46 37 5.2 9.6 0.02 0.74 0.50 93 1013.6
20260507152704 46 38 5.2 9.6 0.02 0.74 0.50 92 1013.7
20260507152504 46 39 5.2 9.6 0.02 0.74 0.50 92 1013.6
20260507152404 46 41 6.1 9.6 0.02 0.74 0.50 92 1013.8
20260507152204 46 42 6.1 9.6 0.02 0.74 0.50 92 1013.7
20260507152104 46 42 6.1 9.6 0.02 0.74 0.50 92 1013.5
20260507151904 46 43 5.2 9.6 0.02 0.74 0.50 93 1013.6
20260507151804 46 44 5.2 8.7 0.02 0.74 0.50 93 1013.6
20260507151704 46 44 5.2 8.7 0.02 0.74 0.49 93 1013.5
20260507151604 46 43 4.3 8.7 0.02 0.74 0.49 92 1013.5
20260507151504 46 44 4.3 8.7 0.02 0.74 0.49 93 1013.3
20260507151404 46 43 4.3 8.7 0.02 0.74 0.49 93 1013.5
20260507151304 46 45 4.3 8.7 0.02 0.74 0.49 93 1013.6
20260507151204 46 44 4.3 8.7 0.02 0.74 0.49 93 1013.6
20260507151104 46 44 4.3 7.8 0.02 0.74 0.49 92 1013.5
20260507151004 46 47 3.5 7.8 0.03 0.74 0.49 92 1013.6
20260507150904 46 47 4.3 7.8 0.03 0.74 0.49 92 1013.5
20260507150804 46 49 4.3 7.8 0.03 0.74 0.49 92 1013.5
20260507150704 46 49 4.3 7.8 0.03 0.74 0.49 92 1013.6
20260507150604 46 46 4.3 7.8 0.03 0.74 0.49 93 1013.8
20260507150504 46 46 4.3 7.8 0.03 0.74 0.49 93 1013.6
20260507150404 46 45 4.3 7.8 0.03 0.73 0.49 93 1013.5
20260507150304 46 43 4.3 7.8 0.03 0.73 0.49 93 1013.4
20260507150204 46 45 4.3 7.8 0.03 0.73 0.49 93 1013.5
20260507150104 46 43 5.2 8.7 0.03 0.73 0.49 93 1013.5
20260507150006 46 41 5.2 8.7 0.03 0.73 0.49 93 1013.6
20260507145904 46 41 5.2 8.7 0.03 0.73 0.49 93 1013.4
20260507145804 46 39 5.2 8.7 0.03 0.73 0.49 92 1013.3
20260507145704 46 40 5.2 8.7 0.04 0.73 0.49 93 1013.4
20260507145604 46 39 5.2 8.7 0.03 0.73 0.48 93 1013.5
20260507145504 46 39 5.2 8.7 0.03 0.73 0.48 93 1013.6
20260507145404 46 38 5.2 8.7 0.03 0.73 0.48 92 1013.5
20260507145306 46 40 5.2 8.7 0.03 0.73 0.48 92 1013.4
20260507145204 46 40 5.2 8.7 0.04 0.73 0.48 93 1013.5
20260507145004 46 42 5.2 7.8 0.04 0.73 0.48 93 1013.4
20260507144904 46 43 5.2 7.8 0.04 0.73 0.48 93 1013.6
20260507144804 46 44 5.2 7.8 0.04 0.73 0.48 93 1013.5
20260507144704 46 44 5.2 7.8 0.03 0.72 0.48 92 1013.3
20260507144604 46 47 5.2 7.8 0.03 0.72 0.48 92 1013.4
20260507144504 46 46 5.2 8.7 0.04 0.72 0.48 92 1013.5
20260507144404 46 47 5.2 8.7 0.04 0.72 0.48 92 1013.6
20260507144304 46 44 5.2 8.7 0.04 0.72 0.48 92 1013.4
20260507144204 46 42 5.2 8.7 0.04 0.72 0.48 92 1013.4
20260507144104 46 41 5.2 8.7 0.04 0.72 0.48 92 1013.5
20260507144004 46 40 6.1 8.7 0.04 0.72 0.48 92 1013.4
20260507143904 46 38 6.1 8.7 0.04 0.72 0.48 92 1013.4
20260507143811 46 37 6.1 8.7 0.04 0.72 0.48 92 1013.4
20260507143804 46 36 6.1 8.7 0.04 0.72 0.48 92 1013.4
20260507143504 46 35 6.1 9.6 0.04 0.72 0.48 92 1013.2
20260507143404 46 33 7.0 9.6 0.04 0.72 0.48 92 1013.5
20260507143204 46 33 7.0 9.6 0.04 0.72 0.48 92 1013.3
20260507143104 46 33 7.0 9.6 0.04 0.72 0.48 92 1013.4
20260507143004 46 34 7.0 11.3 0.04 0.72 0.48 92 1013.2
20260507142904 46 34 7.0 11.3 0.04 0.72 0.48 92 1013.3
20260507142804 46 33 7.0 11.3 0.04 0.72 0.47 92 1013.3
20260507142704 46 31 7.0 11.3 0.04 0.72 0.47 92 1013.3
20260507142604 46 30 7.0 11.3 0.04 0.72 0.47 92 1013.2
20260507142504 46 30 7.0 11.3 0.04 0.72 0.47 92 1013.2
20260507142405 46 32 7.0 11.3 0.04 0.72 0.47 92 1013.3
20260507142204 47 32 7.0 11.3 0.04 0.72 0.47 92 1013.2
20260507142104 47 30 6.1 11.3 0.04 0.72 0.47 93 1013.3
20260507142004 47 29 6.1 9.6 0.04 0.72 0.47 93 1013.2
20260507141904 47 30 6.1 8.7 0.04 0.72 0.47 93 1013.1
20260507141804 47 32 6.1 8.7 0.04 0.72 0.47 93 1013.3
20260507141704 47 35 6.1 8.7 0.04 0.72 0.47 93 1013.1
20260507141504 47 36 6.1 11.3 0.04 0.71 0.47 93 1013.0
20260507141404 47 34 6.1 11.3 0.04 0.71 0.47 93 1013.2
20260507141304 47 33 6.1 11.3 0.04 0.71 0.47 93 1013.4
20260507141104 47 32 6.1 11.3 0.04 0.71 0.47 93 1013.1
20260507141006 47 32 6.1 11.3 0.04 0.71 0.47 93 1013.3
20260507140904 47 30 6.1 11.3 0.04 0.71 0.46 93 1013.0
20260507140804 47 28 6.1 11.3 0.04 0.71 0.46 93 1013.3
20260507140704 47 28 6.1 11.3 0.04 0.71 0.46 93 1013.3
20260507140604 47 27 6.1 11.3 0.04 0.71 0.46 93 1013.3
20260507140504 47 26 6.1 9.6 0.04 0.71 0.46 92 1013.3
20260507140404 47 27 6.1 8.7 0.04 0.70 0.46 92 1013.1
20260507140304 47 27 6.1 8.7 0.04 0.70 0.46 92 1013.1
20260507140204 47 28 5.2 8.7 0.04 0.70 0.46 92 1013.1
20260507140104 47 27 5.2 8.7 0.04 0.70 0.46 92 1013.2
20260507140005 47 26 5.2 8.7 0.04 0.70 0.46 92 1013.2
20260507135904 47 26 5.2 8.7 0.05 0.70 0.46 92 1013.2
20260507135804 47 27 5.2 8.7 0.05 0.70 0.46 92 1013.3
20260507135604 47 27 5.2 8.7 0.04 0.70 0.45 93 1013.2
20260507135505 47 27 5.2 8.7 0.04 0.70 0.45 93 1013.1
20260507135404 47 27 5.2 8.7 0.04 0.70 0.45 93 1013.3
20260507135306 47 29 6.1 8.7 0.04 0.70 0.45 93 1013.1
20260507135204 47 30 6.1 8.7 0.04 0.69 0.45 93 1013.2
20260507135111 47 31 6.1 8.7 0.04 0.69 0.45 93 1013.1
20260507135104 47 31 6.1 8.7 0.04 0.69 0.45 93 1013.1
20260507135004 47 32 6.1 8.7 0.04 0.69 0.45 93 1013.1
20260507134704 47 33 6.1 8.7 0.04 0.69 0.45 93 1013.3
20260507134604 47 33 6.1 8.7 0.04 0.69 0.45 93 1013.3
20260507134504 47 33 6.1 8.7 0.04 0.69 0.44 93 1013.2
20260507134404 47 33 6.1 8.7 0.04 0.69 0.44 93 1013.2
20260507134304 47 33 6.1 8.7 0.04 0.69 0.44 93 1013.2
20260507134204 47 33 6.1 8.7 0.04 0.69 0.44 93 1013.0
20260507134104 47 33 6.1 8.7 0.04 0.69 0.44 93 1013.2
20260507134005 47 33 6.1 8.7 0.04 0.69 0.44 93 1013.1
20260507133904 47 33 6.1 7.0 0.04 0.69 0.44 93 1013.0
20260507133804 47 33 6.1 7.0 0.04 0.69 0.44 93 1013.0
20260507133704 47 33 6.1 7.0 0.04 0.69 0.44 93 1013.0
20260507133604 47 33 6.1 7.0 0.04 0.69 0.44 93 1013.1
20260507133505 47 34 6.1 7.0 0.04 0.69 0.44 93 1013.1
20260507133404 47 35 6.1 7.8 0.04 0.69 0.44 93 1013.1
20260507133304 47 37 6.1 7.8 0.04 0.69 0.44 93 1013.0
20260507133006 47 40 6.1 7.8 0.03 0.68 0.44 92 1013.0
20260507132904 47 40 6.1 7.8 0.03 0.68 0.44 92 1013.1
20260507132804 47 38 6.1 7.8 0.03 0.68 0.44 92 1013.2
20260507132704 46 38 6.1 7.8 0.04 0.68 0.44 92 1013.0
20260507132604 46 36 6.1 7.8 0.03 0.68 0.43 92 1013.1
20260507132504 46 36 6.1 7.8 0.03 0.68 0.43 92 1013.1
20260507132404 47 37 6.1 7.8 0.03 0.68 0.43 92 1012.8
20260507132307 47 37 6.1 7.8 0.03 0.68 0.43 92 1013.0
20260507132204 47 36 6.1 7.8 0.03 0.68 0.43 92 1012.9
20260507132111 47 34 5.2 7.8 0.03 0.67 0.43 92 1013.0
20260507132105 47 34 5.2 7.8 0.03 0.67 0.43 92 1013.0
20260507132004 47 33 5.2 7.8 0.03 0.67 0.43 92 1012.9
20260507131804 47 34 5.2 7.8 0.03 0.67 0.43 92 1013.0
20260507131704 47 34 5.2 7.8 0.03 0.67 0.43 92 1013.1
20260507131605 47 35 5.2 7.0 0.02 0.67 0.43 92 1012.9
20260507131505 47 34 5.2 7.0 0.02 0.67 0.43 92 1012.8
20260507131404 47 31 4.3 7.0 0.02 0.67 0.43 92 1012.9
20260507131304 47 28 4.3 7.0 0.02 0.67 0.43 92 1013.1
20260507131204 47 27 4.3 7.0 0.02 0.67 0.43 92 1013.0
20260507131104 47 28 4.3 7.0 0.02 0.67 0.43 92 1012.8
20260507131005 47 29 4.3 7.0 0.02 0.67 0.42 92 1012.9
20260507130904 47 30 4.3 7.0 0.02 0.67 0.42 92 1012.8
20260507130804 47 31 4.3 7.0 0.02 0.67 0.42 92 1012.7
20260507130704 47 32 4.3 7.0 0.02 0.67 0.42 92 1012.8
20260507130504 47 35 3.5 7.0 0.02 0.67 0.42 92 1012.9
20260507130411 47 35 3.5 7.0 0.02 0.66 0.42 92 1012.9
20260507130404 47 36 3.5 7.0 0.02 0.66 0.42 92 1012.9
20260507130304 47 35 3.5 7.0 0.02 0.66 0.42 92 1013.0
20260507130212 47 38 3.5 6.1 0.02 0.66 0.42 92 1012.9
20260507130104 47 38 3.5 6.1 0.02 0.66 0.42 92 1012.8
20260507125904 48 34 3.5 6.1 0.02 0.66 0.41 92 1012.7
20260507125804 48 34 3.5 6.1 0.02 0.66 0.41 92 1012.5
20260507125704 48 33 3.5 6.1 0.02 0.66 0.41 93 1012.9
20260507125605 48 34 3.5 6.1 0.02 0.66 0.41 93 1012.7
20260507125504 48 33 3.5 6.1 0.02 0.66 0.41 93 1012.7
20260507125404 48 32 3.5 6.1 0.02 0.66 0.41 93 1012.7
20260507125306 48 34 3.5 6.1 0.01 0.65 0.41 93 1012.7
20260507125204 48 34 3.5 6.1 0.01 0.65 0.41 93 1012.7
20260507125111 48 31 3.5 6.1 0.01 0.65 0.41 93 1012.8
20260507125004 48 33 2.6 6.1 0.01 0.65 0.41 93 1012.7
20260507124804 48 36 2.6 6.1 0.01 0.65 0.41 93 1012.5
20260507124705 48 37 2.6 7.0 0.01 0.65 0.41 93 1012.7
20260507124606 48 35 3.5 7.0 0.01 0.65 0.41 93 1012.8
20260507124504 47 36 2.6 7.0 0.01 0.65 0.41 93 1012.5
20260507124404 47 39 2.6 7.0 0.01 0.65 0.41 93 1012.7
20260507124205 47 39 2.6 7.0 0.01 0.65 0.41 93 1012.5
20260507124104 47 41 2.6 7.0 0.01 0.65 0.41 93 1012.8
20260507124005 47 40 2.6 7.0 0.01 0.65 0.41 93 1012.5
20260507123904 47 40 2.6 7.0 0.01 0.65 0.41 93 1012.5
20260507123811 47 40 2.6 7.0 0.01 0.65 0.41 93 1012.5
20260507123804 47 40 2.6 7.0 0.01 0.65 0.41 93 1012.5
20260507123504 47 39 2.6 3.5 0.01 0.65 0.41 93 1012.4
20260507123404 47 37 3.5 6.1 0.01 0.65 0.41 93 1012.4
20260507123204 47 39 3.5 6.1 0.01 0.65 0.41 93 1012.2
20260507123104 47 42 3.5 6.1 0.01 0.65 0.41 93 1012.4
20260507123005 47 45 3.5 6.1 0.01 0.65 0.41 93 1012.4
20260507122911 47 47 3.5 6.1 0.01 0.65 0.41 93 1012.2
20260507122904 47 48 3.5 6.1 0.01 0.65 0.41 93 1012.2
20260507122804 47 51 3.5 6.1 0.01 0.65 0.41 93 1012.4
20260507122712 47 52 3.5 6.1 0.01 0.65 0.40 93 1012.5
20260507122604 47 51 3.5 7.0 0.01 0.65 0.40 93 1012.2
20260507122411 47 49 3.5 7.0 0.01 0.65 0.40 93 1012.3
20260507122307 47 46 3.5 7.0 0.01 0.65 0.40 93 1012.3
20260507122104 47 38 4.3 7.0 0.01 0.65 0.40 93 1012.3
20260507122006 47 38 4.3 7.0 0.01 0.65 0.40 93 1012.4
20260507121904 47 37 4.3 7.0 0.01 0.65 0.40 93 1012.3
20260507121804 47 36 4.3 7.0 0.01 0.65 0.40 93 1012.3
20260507121704 47 36 5.2 7.0 0.01 0.65 0.40 93 1012.4
20260507121604 47 35 5.2 7.0 0.01 0.65 0.40 93 1012.4
20260507121504 47 35 5.2 7.0 0.01 0.65 0.40 93 1012.2
20260507121404 47 34 5.2 7.0 0.01 0.65 0.40 93 1012.2
20260507121304 47 34 4.3 7.0 0.01 0.65 0.40 93 1012.2
20260507121204 47 34 4.3 7.0 0.01 0.65 0.40 93 1012.1
20260507121104 47 35 4.3 7.0 0.01 0.65 0.40 93 1012.2
20260507121004 47 36 4.3 7.0 0.00 0.64 0.40 93 1012.1
20260507120904 47 36 4.3 7.0 0.00 0.64 0.40 93 1012.0
20260507120804 47 34 4.3 7.0 0.00 0.64 0.40 93 1012.1
20260507120704 47 32 4.3 7.0 0.00 0.64 0.40 93 1012.0
20260507120604 47 33 4.3 7.0 0.00 0.64 0.40 93 1012.2
20260507120504 47 35 4.3 7.0 0.00 0.64 0.40 93 1012.2
20260507120404 47 36 4.3 7.0 0.00 0.64 0.40 93 1012.2
20260507120304 47 40 4.3 7.0 0.00 0.64 0.40 93 1012.2
20260507120104 47 44 4.3 7.0 0.00 0.64 0.40 93 1012.0
20260507120005 47 44 4.3 7.0 0.00 0.64 0.40 93 1012.2
20260507115804 47 46 4.3 7.0 0.00 0.64 0.40 93 1012.0
20260507115705 47 47 4.3 7.0 0.00 0.64 0.40 93 1012.1
20260507115604 47 45 4.3 7.0 0.00 0.64 0.40 93 1012.1
20260507115504 47 44 4.3 7.0 0.00 0.64 0.40 93 1012.0
20260507115204 47 38 4.3 6.1 0.01 0.64 0.40 93 1012.0
20260507115104 47 36 4.3 6.1 0.01 0.64 0.40 93 1011.9
20260507115004 47 35 4.3 6.1 0.01 0.64 0.40 93 1012.1
20260507114904 47 35 4.3 6.1 0.01 0.64 0.40 93 1012.0
20260507114704 47 31 3.5 6.1 0.01 0.64 0.40 93 1012.0
20260507114604 47 31 3.5 6.1 0.01 0.64 0.40 93 1012.1
20260507114504 47 31 3.5 6.1 0.00 0.64 0.39 93 1012.0
20260507114404 47 31 3.5 6.1 0.00 0.64 0.39 93 1011.9
20260507114304 47 31 3.5 6.1 0.00 0.64 0.39 93 1012.0
20260507114212 47 31 3.5 6.1 0.00 0.64 0.39 93 1012.0
20260507114205 47 31 3.5 6.1 0.00 0.64 0.39 93 1012.0
20260507114104 47 32 4.3 6.1 0.00 0.64 0.39 93 1012.2
20260507113904 47 30 4.3 6.1 0.00 0.64 0.39 93 1011.9
20260507113804 47 30 4.3 6.1 0.00 0.64 0.39 93 1012.2
20260507113704 47 31 4.3 6.1 0.00 0.64 0.39 93 1012.1
20260507113604 47 33 4.3 6.1 0.00 0.64 0.39 93 1012.0
20260507113504 47 33 4.3 6.1 0.00 0.64 0.39 93 1012.0
20260507113404 47 35 3.5 6.1 0.00 0.64 0.39 93 1012.0
20260507113304 47 37 3.5 6.1 0.00 0.64 0.39 93 1011.9
20260507113204 47 39 3.5 6.1 0.00 0.64 0.39 93 1011.8
20260507113104 47 40 3.5 7.0 0.00 0.64 0.39 93 1011.9
20260507113005 47 41 3.5 7.0 0.00 0.64 0.39 93 1011.8
20260507112904 47 42 3.5 7.0 0.00 0.64 0.39 93 1011.7
20260507112804 47 43 3.5 7.0 0.00 0.64 0.39 93 1011.8
20260507112704 47 42 3.5 7.0 0.00 0.64 0.39 93 1012.0
20260507112404 47 41 3.5 7.0 0.01 0.64 0.39 93 1011.8
20260507112307 47 40 3.5 7.0 0.01 0.64 0.39 93 1011.8
20260507112204 47 38 3.5 7.0 0.01 0.64 0.39 93 1011.9
20260507112104 47 35 3.5 7.0 0.01 0.64 0.39 93 1011.8
20260507112011 47 33 3.5 5.2 0.01 0.64 0.39 93 1011.8
20260507111912 47 33 3.5 6.1 0.01 0.64 0.39 93 1011.9
20260507111905 47 34 3.5 6.1 0.01 0.64 0.39 93 1011.9
20260507111712 47 33 3.5 6.1 0.01 0.64 0.39 93 1011.8
20260507111604 47 32 3.5 6.1 0.01 0.64 0.39 93 1012.1
20260507111404 47 27 3.5 6.1 0.01 0.64 0.39 93 1011.8
20260507111304 47 25 3.5 6.1 0.01 0.64 0.39 93 1011.9
20260507111204 47 24 2.6 6.1 0.01 0.64 0.39 93 1012.0
20260507111104 47 26 2.6 6.1 0.01 0.64 0.39 93 1011.9
20260507111004 47 28 2.6 6.1 0.01 0.64 0.39 93 1011.7
20260507110904 47 24 2.6 3.5 0.01 0.64 0.39 93 1011.9
20260507110804 47 20 2.6 3.5 0.01 0.64 0.39 93 1011.6
20260507110711 47 15 2.6 3.5 0.01 0.64 0.39 94 1011.8
20260507110704 47 14 2.6 2.6 0.01 0.64 0.39 94 1011.8
20260507110604 48 14 2.6 2.6 0.01 0.64 0.39 94 1011.7
20260507110404 47 14 2.6 2.6 0.01 0.64 0.39 94 1011.7
20260507110304 47 52 5.2 6.1 0.01 0.64 0.39 94 1011.7
20260507110205 47 52 5.2 6.1 0.01 0.64 0.39 93 1011.7
20260507110104 47 52 5.2 6.1 0.01 0.64 0.39 93 1011.8
20260507110005 47 52 5.2 6.1 0.01 0.64 0.39 93 1011.7
20260507105904 47 52 5.2 6.1 0.01 0.64 0.39 94 1011.7
20260507105804 47 52 5.2 6.1 0.01 0.64 0.39 94 1011.7
20260507105704 47 52 5.2 6.1 0.01 0.64 0.39 94 1011.6
20260507105604 47 52 5.2 6.1 0.01 0.64 0.39 94 1011.7
20260507105505 47 52 5.2 6.1 0.01 0.64 0.39 94 1011.7
20260507105404 47 52 5.2 6.1 0.01 0.63 0.39 94 1011.7
20260507105204 47 52 5.2 6.1 0.01 0.63 0.39 94 1011.7
20260507105104 47 52 5.2 6.1 0.01 0.63 0.39 94 1011.7
20260507105005 47 52 5.2 6.1 0.01 0.63 0.39 94 1011.7
20260507104904 47 52 5.2 6.1 0.01 0.63 0.39 94 1011.7
20260507104804 47 52 5.2 6.1 0.01 0.63 0.39 94 1011.4
20260507104504 47 52 5.2 6.1 0.01 0.63 0.39 94 1011.7
20260507104404 47 51 5.2 6.1 0.01 0.63 0.39 94 1011.6
20260507104104 47 45 4.3 7.8 0.02 0.63 0.39 94 1011.4
20260507104005 47 42 4.3 7.8 0.02 0.63 0.39 94 1011.6
20260507103904 47 40 4.3 7.8 0.02 0.63 0.39 94 1011.6
20260507103804 47 37 4.3 7.8 0.02 0.63 0.39 94 1011.5
20260507103704 47 35 4.3 7.8 0.02 0.63 0.39 94 1011.5
20260507103604 47 33 4.3 7.8 0.02 0.63 0.39 94 1011.6
20260507103504 47 31 4.3 7.8 0.02 0.63 0.39 94 1011.5
20260507103404 47 30 5.2 7.8 0.02 0.63 0.39 94 1011.6
20260507103304 47 33 5.2 7.8 0.02 0.63 0.39 94 1011.6
20260507103204 47 36 5.2 7.8 0.02 0.63 0.39 94 1011.6
20260507103004 47 38 5.2 7.8 0.02 0.63 0.39 94 1011.5
20260507102904 47 39 5.2 7.8 0.02 0.63 0.39 94 1011.4